GFSNW_sfc_thetae_000.txt.gz
Theta_e
308 308 308 308 308 306 301 293 280 295 300 289 286 282 286 290 288 290 288 288 286 284 286 284 284 284 287 291 291 287 291 285 284 288 292 296 295 291 290 286 283 287 286 287
308 308 308 308 308 306 298 289 288 294 297 281 281 285 285 288 287 287 286 285 287 287 285 282 285 286 291 292 290 289 290 284 281 284 288 290 291 292 293 288 287 286 286 288
307 307 308 308 308 307 293 290 281 285 289 290 286 284 282 283 290 288 288 286 286 285 285 287 285 286 290 293 292 298 291 285 284 283 285 289 287 291 292 289 284 286 290 290
306 307 308 308 307 306 293 286 282 286 282 280 284 285 282 282 283 288 288 285 286 285 283 284 285 288 290 291 294 292 286 281 287 289 292 291 291 291 291 289 291 288 289 291
305 305 307 307 307 305 291 285 288 288 287 288 285 283 280 283 284 286 285 284 286 285 283 284 283 287 288 287 291 289 287 281 285 286 292 293 290 291 292 292 292 292 292 292
305 305 306 307 307 303 295 296 296 291 287 284 283 283 284 284 286 287 289 287 284 283 286 290 290 291 293 291 289 288 284 283 282 279 287 289 285 291 291 292 294 294 291 296
304 305 306 306 307 306 300 297 295 289 283 286 285 286 287 285 286 285 288 288 284 288 292 292 292 291 292 293 292 292 287 286 285 279 285 279 289 298 296 295 296 297 295 297
304 305 306 306 307 307 301 299 296 291 283 287 287 287 287 287 288 286 286 288 290 290 289 285 283 286 287 289 292 293 293 290 283 279 280 288 293 294 292 292 293 295 296 301
305 306 306 307 307 307 301 300 300 295 287 284 290 287 289 286 286 287 286 290 291 290 285 284 275 279 283 283 287 292 292 290 284 282 279 280 289 294 299 299 289 295 295 295
305 306 307 307 307 308 302 298 298 296 289 290 289 288 287 291 290 287 285 286 288 288 282 273 274 279 287 280 281 283 285 287 280 280 278 288 294 296 299 288 287 295 296 295
304 305 307 307 308 309 303 299 295 298 291 290 293 293 289 291 291 287 288 287 288 286 281 283 284 285 286 284 287 286 285 283 286 286 284 285 297 295 289 293 295 296 297 297
304 305 307 307 308 309 306 296 296 301 295 292 294 296 297 295 295 292 291 286 289 288 287 287 287 285 286 286 282 291 285 288 286 288 288 295 298 297 300 300 295 296 297 299
305 305 307 307 308 308 306 300 300 299 294 291 287 289 293 297 298 299 291 287 291 291 294 291 290 284 288 281 284 286 290 293 289 289 292 293 296 300 300 299 297 299 299 300
305 306 307 308 306 307 306 299 298 298 295 288 287 296 294 299 301 298 298 295 295 293 294 291 289 287 292 286 289 287 288 290 289 289 293 294 297 298 299 300 299 299 300 302
305 306 306 307 306 305 302 297 299 298 294 288 288 293 297 299 299 299 299 296 295 292 290 287 285 290 291 292 289 286 291 289 288 287 294 293 294 298 300 299 299 299 300 301
305 305 306 306 306 306 295 289 297 302 300 293 285 292 295 297 302 299 299 296 295 295 293 289 289 292 290 286 284 292 294 296 295 293 297 298 298 300 301 300 299 300 301 302
304 305 305 306 306 299 291 291 298 303 301 292 287 285 295 296 299 298 296 296 292 293 293 289 286 287 289 285 283 291 292 294 295 299 299 296 298 297 300 300 301 302 302 303
304 304 307 308 306 304 295 298 304 303 297 293 288 286 288 296 293 293 293 290 290 292 291 289 286 287 286 281 290 293 293 294 295 297 299 299 301 300 299 300 301 300 300 302
303 305 307 300 294 292 295 307 304 297 293 284 289 286 285 293 295 295 294 288 285 289 286 288 289 282 282 288 291 292 293 292 293 296 297 299 299 300 301 301 299 298 300 301
304 299 295 287 295 306 305 296 292 291 295 295 291 294 288 293 294 291 289 290 286 284 289 292 288 286 292 293 295 296 295 296 295 292 292 294 294 296 298 300 299 299 299 302
293 292 291 296 302 295 288 284 284 284 283 290 292 290 286 295 289 288 289 285 286 281 286 287 286 285 289 296 297 298 298 297 297 297 296 296 296 296 297 298 302 300 300 301
292 294 298 298 291 287 285 280 283 284 282 288 287 288 289 293 291 287 287 284 285 281 289 287 285 290 295 296 297 298 299 299 298 299 298 297 298 298 297 297 299 302 302 302
301 297 294 286 285 279 281 280 281 280 287 289 288 285 287 291 288 285 281 281 281 283 276 282 288 292 294 295 295 296 298 301 301 301 301 301 300 300 299 298 299 300 302 304
293 287 279 282 281 282 283 284 285 288 288 288 287 285 283 285 282 287 280 281 279 270 270 275 286 292 292 293 294 294 295 300 300 300 301 301 301 300 301 300 301 301 301 303
291 285 278 281 287 288 289 289 288 289 290 287 284 285 285 279 280 284 277 275 269 271 274 281 287 292 291 291 293 293 295 298 300 301 301 301 301 301 302 302 301 301 302 302
293 287 284 286 286 286 288 288 288 290 288 287 285 281 281 279 279 274 272 275 269 276 281 287 289 291 291 291 293 294 296 298 300 299 301 301 301 301 302 304 302 301 301 301
289 285 289 287 286 287 288 289 290 290 288 283 283 281 280 282 275 272 283 277 279 283 287 288 289 290 291 292 294 296 296 297 297 299 301 301 302 302 301 300 302 302 302 302

GFSNW_sfc_thetae_003.txt.gz
Theta_e
307 307 308 308 308 306 302 297 288 300 304 290 288 284 286 290 289 292 289 289 287 285 286 284 284 284 286 292 291 288 295 293 289 292 298 300 298 296 296 290 289 292 292 293
306 306 307 307 308 307 300 291 289 300 301 283 283 286 286 288 288 288 288 287 288 289 286 282 286 287 291 292 291 290 294 291 287 289 294 297 295 297 298 298 298 291 287 293
306 305 306 307 307 307 300 292 285 292 296 292 285 283 284 284 291 289 290 288 290 288 286 289 285 287 290 292 292 297 295 290 290 288 291 295 292 294 297 297 292 292 293 296
305 305 305 306 306 307 299 293 288 290 284 286 286 285 284 284 284 289 290 287 287 285 283 285 286 288 290 292 293 293 292 286 289 292 293 296 294 294 294 294 295 291 296 296
305 305 306 306 306 305 298 291 289 292 289 289 286 286 284 284 286 286 285 286 287 287 283 284 283 287 288 287 291 291 293 287 289 289 293 295 293 295 295 295 295 295 297 297
305 305 306 307 307 305 297 298 298 292 288 286 285 285 285 285 288 289 290 289 287 286 288 291 292 292 292 292 290 290 290 289 288 287 291 293 290 295 296 296 297 297 294 300
304 305 306 307 308 306 301 300 296 289 284 286 286 287 289 288 288 286 289 291 288 291 296 295 294 294 292 292 293 294 289 289 290 288 292 285 295 300 300 297 297 298 300 302
304 305 307 307 308 307 303 303 296 291 285 287 287 288 288 289 291 289 289 291 293 296 293 289 286 287 288 290 292 293 294 289 288 287 290 295 294 295 294 297 294 298 298 300
305 305 306 308 308 308 304 303 302 296 288 288 290 288 289 287 287 288 290 295 296 296 291 288 281 279 283 283 288 292 292 292 288 289 287 286 292 297 300 302 293 299 300 300
305 305 306 307 308 308 306 305 304 297 290 293 292 287 288 291 290 288 291 292 292 294 288 283 283 283 287 281 281 284 287 288 285 287 287 289 296 299 302 294 292 300 301 301
305 305 306 307 308 309 306 303 302 299 293 293 295 295 292 292 292 288 292 291 292 291 286 285 285 284 286 285 287 287 287 287 286 289 287 285 298 297 292 296 301 301 302 303
304 305 306 307 308 309 307 301 302 303 295 294 300 299 300 298 297 293 293 291 291 294 288 289 288 286 286 285 283 290 286 289 287 288 288 296 300 298 301 301 300 300 301 303
305 305 306 307 308 308 308 303 303 301 294 296 295 294 299 301 301 302 291 293 295 296 297 292 290 285 289 284 286 288 291 295 291 291 293 295 298 301 301 301 301 303 303 303
304 305 306 306 307 308 306 301 304 300 295 290 293 299 299 302 303 300 299 297 298 297 297 293 290 287 292 289 289 289 293 294 292 291 294 297 298 299 299 300 302 302 303 303
304 305 306 305 307 307 305 303 304 304 296 291 293 300 301 303 303 300 300 297 296 295 291 291 290 294 291 293 292 289 294 292 290 290 295 295 295 299 301 299 299 301 302 302
304 304 305 305 306 307 303 297 302 303 301 294 289 299 298 301 302 301 300 298 297 296 290 293 296 296 295 289 288 293 295 295 297 295 299 299 300 301 302 299 300 302 303 303
304 304 304 306 307 304 298 297 302 304 303 294 290 291 298 301 302 301 299 298 300 298 296 294 294 294 295 292 287 293 295 296 297 298 300 298 299 298 303 301 303 304 304 303
303 303 305 307 306 304 302 306 305 306 300 297 289 290 294 300 295 294 300 296 296 296 296 295 293 295 294 289 293 295 295 296 296 297 298 299 301 303 303 304 303 302 302 302
303 304 306 305 301 299 302 306 308 306 299 293 291 288 288 299 299 297 297 297 293 297 292 292 293 291 287 290 292 293 295 295 295 297 298 299 299 299 300 301 302 302 303 303
301 304 300 297 301 305 307 302 298 297 299 297 292 297 291 296 297 293 293 294 290 288 290 294 287 287 292 294 296 297 298 299 299 297 296 298 298 298 299 299 300 301 302 305
295 293 295 300 303 301 297 294 292 293 292 297 297 297 294 299 292 290 293 289 290 285 289 289 288 287 293 299 300 300 301 301 300 300 300 300 300 300 300 300 301 301 301 303
295 295 297 298 297 294 291 289 291 291 290 295 295 295 296 297 298 292 293 288 289 284 292 289 286 291 298 298 298 300 302 302 303 303 302 302 302 302 302 302 302 302 303 303
301 296 294 292 292 287 286 284 288 289 294 296 296 293 296 295 296 291 289 286 285 290 288 288 291 296 297 298 299 300 302 303 303 303 304 303 303 304 303 303 304 305 304 304
293 291 286 287 287 289 291 292 293 296 295 295 295 294 294 294 291 292 285 288 287 283 283 286 294 297 297 299 300 300 301 302 303 303 303 303 302 302 303 303 305 305 304 305
292 292 287 288 292 293 294 295 295 296 297 295 293 293 293 291 288 289 286 283 282 284 286 292 298 299 299 299 300 300 302 302 302 303 303 303 303 302 302 303 303 305 305 305
293 292 291 292 291 292 293 294 294 298 295 294 294 291 288 287 288 284 283 283 282 289 290 297 298 298 299 300 300 301 302 302 302 303 303 303 301 302 302 303 303 302 303 303
294 293 296 293 292 293 293 295 296 297 295 293 292 289 287 289 286 284 285 285 292 295 298 299 298 298 299 300 300 301 302 302 303 303 303 302 303 303 302 300 303 302 302 302

GFSNW_sfc_thetae_006.txt.gz
Theta_e
306 306 306 306 307 306 304 300 293 305 308 294 293 287 289 292 292 294 292 292 289 287 288 287 286 286 289 292 295 290 297 296 292 295 300 303 302 300 301 294 293 295 294 295
306 306 306 306 306 306 302 295 296 306 305 286 285 288 289 291 291 291 291 289 291 292 289 285 288 290 293 293 292 291 297 294 290 293 297 300 299 300 301 302 302 296 292 296
306 306 306 306 306 306 304 297 291 296 300 295 289 287 287 288 293 291 292 291 292 290 288 290 287 288 292 294 292 295 297 295 294 291 294 298 296 298 300 301 296 296 296 298
305 306 307 306 306 306 304 297 292 294 289 290 290 289 288 285 286 291 293 289 289 288 285 287 285 287 289 293 293 295 294 292 295 297 297 298 298 298 299 298 300 296 298 299
305 306 307 307 307 306 300 294 291 294 292 292 290 289 288 287 289 289 289 288 289 290 287 288 285 288 289 288 294 294 297 293 296 293 297 297 296 298 299 300 300 300 300 301
305 305 306 307 307 306 301 299 301 294 291 289 287 288 288 289 291 292 293 292 290 289 291 294 295 296 295 293 291 291 292 292 293 290 296 296 293 298 299 300 302 302 298 303
305 305 306 307 308 306 307 305 302 291 288 288 288 288 290 289 291 288 293 293 290 294 300 300 299 296 295 295 293 295 290 289 295 291 295 287 299 304 305 301 301 303 304 306
305 306 306 307 308 308 306 307 301 292 287 290 290 289 289 292 294 292 292 294 296 301 296 292 288 288 290 291 293 292 294 290 291 292 291 297 298 300 301 302 298 304 304 306
305 306 307 307 308 309 306 307 307 300 289 292 294 290 291 290 291 292 293 300 303 300 295 291 283 281 286 286 288 294 295 295 289 294 289 288 296 301 305 306 297 304 306 306
304 305 306 307 308 309 307 307 309 300 291 296 295 290 290 293 292 288 293 296 296 300 292 287 285 285 290 285 284 288 290 290 290 292 293 294 299 302 306 297 297 305 306 307
304 305 305 306 308 309 308 306 309 300 295 296 299 297 293 293 293 288 294 293 296 294 289 288 286 286 288 288 289 288 288 288 290 293 290 287 302 301 298 299 305 305 307 307
304 305 305 306 307 308 308 303 308 307 296 297 304 303 304 302 300 295 294 292 290 295 292 291 290 287 290 288 285 293 288 289 289 289 290 300 303 302 305 305 305 305 306 307
304 304 305 305 306 308 307 305 306 302 297 298 301 299 304 305 304 306 290 294 295 293 299 295 292 286 289 286 287 290 293 296 291 291 296 299 302 304 304 305 305 306 307 307
304 304 305 305 305 307 308 304 307 302 297 290 298 306 304 306 304 302 299 297 299 298 295 293 294 290 295 291 291 290 294 296 293 292 298 300 302 303 304 304 305 305 307 308
304 305 305 305 305 306 307 306 305 306 297 292 295 304 305 305 304 302 301 299 296 295 294 295 292 298 296 297 295 292 294 292 291 290 297 297 301 304 304 303 304 306 306 306
304 304 304 304 305 306 305 303 308 306 302 293 290 304 303 304 305 304 302 301 298 297 295 294 297 299 297 293 290 295 297 298 299 296 301 302 304 305 306 305 306 307 307 307
304 304 304 305 307 307 304 302 307 306 303 295 291 297 303 305 303 304 305 304 304 301 301 298 298 298 297 295 290 297 298 299 301 303 302 300 302 302 305 306 307 308 308 308
303 303 305 307 307 305 306 309 306 306 300 300 292 295 299 305 300 300 307 303 304 303 300 299 296 297 297 291 296 296 298 299 300 301 303 303 304 305 305 306 306 306 306 308
303 303 306 306 307 306 308 307 308 307 302 294 293 290 291 305 302 303 301 303 294 301 293 293 294 292 288 291 292 294 296 297 299 300 301 303 303 303 304 304 305 304 305 306
303 305 305 303 306 305 308 303 299 298 300 300 294 300 294 302 299 298 297 299 295 292 295 297 294 294 298 300 301 303 302 302 302 299 299 301 302 302 303 303 304 305 305 305
302 298 298 303 306 305 304 298 297 299 296 301 301 301 297 304 295 293 298 292 297 290 294 292 291 291 297 302 301 303 304 304 303 303 303 304 304 304 304 304 305 306 307 307
298 298 299 300 299 300 295 295 297 295 294 299 298 299 301 303 301 297 297 290 292 288 299 292 289 296 300 301 301 303 304 305 305 304 303 304 304 304 304 305 305 305 307 308
303 296 294 296 299 289 290 287 292 293 298 299 300 297 302 301 301 298 296 288 288 297 293 292 296 300 301 302 302 303 304 304 304 303 304 303 303 305 305 303 304 305 305 306
296 293 289 293 291 294 295 295 297 300 300 300 300 299 299 301 296 297 287 295 294 288 287 289 296 299 301 303 304 303 303 304 303 303 303 303 302 302 303 303 305 304 303 303
293 295 287 292 297 300 300 301 301 302 304 301 300 299 298 297 293 295 291 287 286 290 290 298 300 302 303 303 304 304 304 304 303 304 303 303 302 301 303 303 305 303 303 304
294 294 295 298 296 296 298 299 299 303 302 303 301 296 293 292 294 289 288 288 286 290 299 300 302 302 303 304 305 303 305 305 305 304 304 304 303 302 303 304 304 304 302 301
293 294 300 298 297 297 297 299 299 304 300 295 297 290 289 296 291 289 292 290 297 300 299 303 304 304 304 305 305 304 304 305 304 304 304 304 305 305 302 302 305 304 305 301

GFSNW_sfc_thetae_009.txt.gz
Theta_e
306 307 307 307 307 305 306 304 295 307 310 295 297 291 292 293 293 295 293 293 292 289 289 288 289 288 291 295 296 292 298 294 292 295 302 304 303 302 302 297 296 299 298 298
306 306 307 307 307 306 305 300 300 308 305 290 289 293 292 293 292 292 291 290 292 294 290 286 290 291 293 296 293 290 295 292 287 293 299 301 299 302 304 304 305 298 295 298
306 306 306 307 307 307 304 300 295 301 302 297 291 290 291 289 295 293 293 292 293 291 289 292 287 289 291 294 294 296 295 293 291 290 295 299 297 300 303 303 299 299 299 301
306 305 306 307 307 307 305 302 296 297 292 293 291 292 291 289 289 294 295 292 290 290 287 289 286 289 292 294 296 293 294 290 292 294 300 299 299 300 301 301 302 299 301 301
306 307 306 306 307 307 303 297 294 298 293 294 291 292 291 289 291 292 290 290 292 292 289 289 288 291 292 290 294 292 296 291 293 290 296 299 297 300 301 301 303 303 303 303
305 307 307 307 307 307 303 304 301 298 293 292 290 291 290 290 292 294 294 293 293 291 293 296 297 297 296 294 292 291 292 294 290 286 296 298 295 299 301 302 304 304 300 307
305 306 307 307 308 307 307 305 302 296 290 292 291 293 292 291 293 291 295 296 293 296 302 301 301 299 297 296 295 297 293 290 291 289 293 288 300 307 304 303 305 307 307 309
305 306 307 307 308 308 306 309 302 297 291 294 293 294 294 295 296 294 295 297 299 303 299 292 291 291 291 293 295 296 298 291 290 288 289 298 299 305 304 302 303 308 307 309
304 305 306 307 308 309 307 307 309 301 294 294 296 294 294 291 292 295 296 302 304 302 296 292 283 284 287 287 289 298 296 295 291 292 288 288 299 304 308 310 299 308 310 310
304 305 306 306 307 308 308 306 314 302 294 298 297 293 292 295 293 291 295 297 297 300 294 288 286 285 292 286 286 289 291 293 292 291 292 292 301 306 309 297 297 308 310 310
304 304 305 306 307 307 308 307 312 302 296 299 301 300 296 296 295 289 296 294 297 295 290 289 288 288 289 289 290 289 288 290 291 294 291 287 303 305 300 304 309 309 310 310
304 304 305 305 306 307 307 305 310 308 297 299 305 306 306 303 302 296 295 293 292 296 291 292 291 288 290 288 285 294 288 290 289 291 289 300 303 304 309 309 308 308 309 310
304 304 304 305 305 306 306 307 307 304 300 301 301 300 306 308 305 306 292 294 296 296 297 294 294 288 292 286 288 289 293 297 292 293 297 299 301 304 307 307 308 309 310 311
305 305 304 305 305 305 305 305 309 304 300 291 299 309 306 310 309 306 302 297 299 298 298 295 295 292 296 291 292 291 293 295 292 294 296 300 301 304 306 307 309 309 311 311
306 306 305 305 304 305 306 307 309 309 302 293 299 306 307 308 309 307 304 298 297 296 294 295 293 299 296 297 298 293 297 293 292 291 298 297 299 304 307 307 308 310 309 310
306 305 304 305 305 304 305 303 310 311 306 294 292 306 303 306 308 307 305 305 300 300 299 298 301 301 297 294 292 297 299 300 300 297 301 302 304 305 306 307 308 310 310 311
305 305 305 305 307 309 307 304 307 308 306 295 294 297 303 307 306 308 302 307 304 303 302 299 298 299 300 295 292 298 300 301 303 303 304 302 302 303 307 308 308 309 311 312
305 304 304 307 307 307 307 310 307 309 303 302 294 296 300 308 300 300 304 306 305 304 302 303 298 302 301 295 298 300 300 301 301 303 305 305 307 307 307 308 308 307 308 309
304 304 305 308 308 306 307 309 308 309 304 296 295 293 293 305 304 301 302 302 297 305 300 300 299 298 293 297 299 299 300 301 302 305 304 305 304 305 306 306 306 306 307 308
304 305 306 304 306 304 308 304 300 299 301 301 298 302 299 301 300 297 299 302 297 295 300 303 298 297 300 301 302 302 302 304 305 301 301 301 301 302 304 306 307 307 307 308
308 304 303 305 306 306 304 297 296 298 296 301 301 302 299 306 297 298 298 295 297 292 296 296 295 294 299 302 302 303 304 305 303 305 305 304 304 302 303 303 305 306 308 308
301 300 302 304 301 299 295 296 299 297 295 301 299 300 302 304 307 297 298 292 295 290 301 295 291 298 300 301 301 302 304 303 302 304 304 304 304 304 304 303 303 304 306 307
304 298 294 296 299 291 291 289 294 295 300 301 302 298 302 303 303 298 295 288 290 300 295 294 296 300 301 303 304 303 304 304 304 304 304 304 303 305 305 303 305 304 304 306
299 296 290 294 292 295 297 297 297 302 303 301 301 299 300 303 297 298 290 295 298 289 288 288 297 301 301 303 304 303 302 304 303 303 304 303 303 304 304 304 305 304 303 304
298 297 288 294 298 300 302 302 302 303 303 303 300 299 300 298 295 298 292 290 286 291 291 300 301 303 304 304 304 304 303 303 303 304 304 304 304 304 303 305 306 307 304 306
299 298 295 301 299 299 300 300 300 303 302 304 301 296 293 293 295 291 290 288 287 292 301 301 302 303 303 305 306 306 305 305 304 304 304 305 304 304 304 304 306 305 306 306
295 296 300 299 300 301 302 302 302 305 301 297 297 292 291 299 292 290 296 292 298 300 300 304 305 305 305 304 304 305 305 305 305 305 305 305 306 306 305 302 304 305 306 305

GFSNW_sfc_thetae_012.txt.gz
Theta_e
307 307 307 307 307 306 306 305 296 309 310 296 298 291 292 294 293 296 293 292 291 288 289 288 288 288 290 294 297 291 295 291 288 291 299 299 301 298 299 295 294 298 298 298
307 307 306 307 307 306 304 301 301 309 307 291 291 294 292 294 293 294 292 291 293 293 289 286 290 290 295 295 294 291 292 291 286 289 295 300 297 299 301 303 303 298 294 297
307 307 307 307 307 307 305 302 294 299 301 299 293 290 290 290 295 294 294 293 294 292 290 292 288 290 293 295 294 296 295 289 288 286 291 295 295 297 300 301 296 299 299 301
306 307 307 307 306 307 306 303 296 299 291 293 293 293 292 290 289 294 295 292 291 290 287 288 288 291 293 294 296 294 291 287 290 290 292 293 295 298 299 300 302 298 301 301
306 306 307 307 307 307 305 297 296 298 294 296 293 293 291 290 291 292 291 290 292 292 289 290 288 291 291 290 295 293 294 286 291 288 290 292 292 298 299 301 302 303 303 303
306 306 307 307 307 307 303 304 304 297 295 294 292 292 292 292 294 294 295 294 292 291 293 296 297 297 296 295 293 291 291 291 289 284 290 290 290 298 300 301 305 305 300 307
305 306 307 307 308 308 305 303 305 296 291 293 292 294 294 293 294 292 295 297 294 297 302 300 300 298 298 296 295 296 291 290 290 287 289 284 298 305 305 302 306 308 309 309
305 306 306 307 307 308 306 306 305 298 292 293 294 294 294 295 296 294 295 297 300 303 299 292 290 291 292 294 296 295 296 292 287 286 288 294 299 304 303 301 302 309 307 310
304 305 306 307 307 308 306 306 308 304 294 294 297 294 295 291 292 292 296 300 304 302 295 290 285 282 286 286 291 298 295 295 288 288 285 288 293 304 310 310 297 309 310 310
306 305 305 305 306 307 306 306 313 304 295 299 299 295 294 296 295 292 295 297 297 301 294 288 286 285 291 286 286 288 289 291 287 287 286 291 299 304 310 296 297 309 310 311
306 307 305 305 306 306 305 305 311 307 297 299 301 301 298 298 296 288 294 293 295 294 289 289 289 287 290 288 290 289 286 286 288 291 286 284 301 305 299 305 310 310 310 311
306 307 307 306 305 306 306 300 311 312 298 299 306 306 307 306 304 297 296 292 292 293 290 291 291 289 290 287 285 293 286 290 289 291 288 296 302 302 306 308 307 308 309 311
306 306 306 306 306 305 305 302 305 305 299 301 302 302 308 310 309 310 294 295 297 297 298 292 293 289 292 286 288 290 292 296 292 293 295 298 300 305 307 308 308 310 311 311
306 306 307 307 306 306 305 302 307 305 300 292 299 309 307 311 310 308 305 300 300 298 297 294 293 290 296 292 292 292 293 295 292 291 296 299 300 303 305 307 309 310 311 311
306 307 307 306 305 305 306 306 308 310 300 295 298 304 309 311 310 307 305 302 297 296 295 295 295 299 297 295 295 293 297 294 292 291 298 297 299 304 305 305 306 308 309 310
307 306 306 306 305 305 306 302 309 311 308 296 292 305 306 308 308 308 305 304 300 299 299 298 300 303 297 291 291 297 299 301 301 297 302 302 303 305 306 306 307 308 310 311
306 306 306 305 305 306 305 303 306 309 310 296 294 297 306 308 307 308 305 307 304 303 301 300 299 299 301 296 291 297 300 301 302 303 303 300 303 303 307 308 309 310 310 311
306 305 305 306 307 307 306 310 308 311 304 301 294 296 300 308 303 302 306 305 306 305 302 302 299 301 300 293 298 299 300 302 302 303 305 304 305 305 305 307 308 307 307 309
305 305 305 306 306 306 306 309 309 311 305 297 295 294 294 305 302 303 303 303 298 303 299 299 301 298 293 297 299 300 302 300 301 303 303 303 302 303 304 306 306 306 307 308
305 306 306 304 305 309 310 306 300 298 299 300 297 301 298 302 301 299 300 301 299 293 298 302 298 297 300 301 303 303 302 302 303 299 300 301 301 301 302 303 305 306 306 307
307 303 302 306 308 305 304 298 296 298 295 300 301 301 299 307 298 297 300 296 297 291 296 295 294 294 299 302 302 304 304 303 303 304 303 303 304 302 302 302 303 304 304 304
301 300 303 304 300 299 294 295 299 298 295 301 300 301 303 303 305 299 299 294 295 290 300 295 291 297 301 302 301 303 304 304 303 304 303 302 304 304 303 302 302 304 304 305
304 298 295 295 298 291 291 289 294 295 300 301 301 298 302 303 303 299 297 290 289 299 294 292 296 300 302 303 303 303 305 304 304 304 304 304 303 304 304 303 304 304 304 306
299 295 289 292 292 295 297 297 298 301 302 300 301 299 299 301 298 298 291 295 297 289 288 288 298 300 302 303 304 303 303 304 303 304 304 303 303 303 302 304 306 305 304 306
297 297 289 294 299 302 302 304 303 303 303 301 300 300 300 299 294 296 295 290 287 290 290 298 300 304 303 303 303 303 304 304 303 304 303 303 304 304 303 304 305 306 305 305
298 297 296 300 299 300 301 301 301 305 303 303 301 297 294 294 296 292 290 289 286 292 302 302 304 303 303 303 307 305 304 304 304 304 304 304 304 303 304 305 304 304 304 303
295 295 300 299 299 298 300 303 303 307 302 297 297 293 292 297 293 291 297 293 298 302 300 303 306 305 304 304 304 304 305 304 304 304 304 305 305 305 304 302 303 305 304 303

GFSNW_sfc_thetae_015.txt.gz
Theta_e
307 307 307 307 307 305 303 300 293 305 305 292 292 285 290 294 292 295 293 292 289 287 288 286 286 286 290 295 293 287 291 287 284 286 293 296 294 291 290 285 286 289 288 290
307 307 307 307 307 306 300 295 298 306 303 284 286 291 290 292 292 292 291 289 292 290 288 284 288 289 294 295 293 291 290 284 280 283 288 293 292 295 293 291 292 288 287 290
306 306 307 307 307 307 302 297 291 296 298 295 290 288 289 289 295 291 292 290 291 289 287 289 287 289 293 295 294 297 294 286 283 279 286 290 288 291 294 292 288 290 292 294
306 306 307 307 307 306 303 298 292 294 286 289 291 291 290 289 288 293 293 290 290 288 285 286 285 289 291 294 296 294 291 285 287 288 291 290 289 289 290 290 293 290 294 296
306 306 306 307 307 306 301 295 293 295 292 293 291 292 289 289 291 291 290 288 291 291 286 287 285 288 288 288 292 292 292 285 288 286 291 290 288 290 290 291 294 295 296 297
306 306 306 307 307 306 300 300 301 297 293 291 289 289 291 291 292 293 294 293 290 290 292 295 293 294 293 292 290 288 289 285 286 283 289 288 284 287 290 293 296 297 294 301
307 306 306 307 307 307 303 300 299 294 288 291 291 292 293 291 292 291 294 294 292 296 299 299 297 296 295 294 293 293 287 286 288 285 287 277 288 296 297 295 301 303 306 307
307 307 306 306 306 307 302 302 300 296 289 292 293 293 292 294 294 292 293 295 297 299 297 290 286 288 289 292 294 294 293 290 285 283 284 288 294 297 297 298 300 307 306 307
307 307 307 307 306 306 303 301 304 300 293 291 296 293 294 290 291 291 293 297 299 297 293 287 285 280 286 285 290 296 294 293 288 287 281 284 292 297 300 302 295 308 309 308
307 307 308 307 306 306 303 300 302 301 293 297 297 292 292 296 294 290 292 293 293 295 287 282 281 283 290 284 284 288 288 288 285 285 283 287 295 296 299 293 296 308 309 308
307 307 307 307 307 305 303 299 302 298 296 297 299 300 295 295 295 290 293 290 291 289 283 285 285 284 287 286 289 287 285 285 286 288 284 281 295 296 297 303 308 307 306 307
305 306 307 307 308 307 305 297 303 309 300 298 303 303 303 302 301 296 294 292 292 293 288 286 286 287 288 287 282 292 285 288 287 289 287 295 297 298 305 308 305 305 306 306
306 305 307 308 308 307 305 299 300 300 298 297 298 298 306 308 306 306 294 295 296 295 297 291 290 286 291 284 286 289 291 296 291 292 295 296 299 302 305 306 305 306 306 306
305 306 307 307 307 306 305 298 301 302 299 291 294 305 302 309 308 305 302 298 297 297 296 292 291 288 295 289 290 291 292 294 292 291 295 298 299 301 302 305 306 306 307 307
304 305 307 307 306 306 304 303 303 304 299 292 294 300 305 307 307 304 303 300 297 293 293 292 291 295 295 294 294 292 294 292 290 290 297 297 298 302 304 303 305 304 305 306
306 306 307 307 306 306 302 300 305 306 306 296 290 300 301 306 307 305 301 301 298 296 295 294 295 301 295 288 289 296 297 299 299 295 300 301 302 304 306 304 305 305 307 307
305 306 306 306 306 304 300 300 305 309 308 297 291 293 303 307 305 304 303 303 300 299 296 295 295 296 298 293 289 297 298 300 300 302 302 299 302 300 305 305 306 307 308 308
304 305 305 305 305 305 302 307 307 310 303 300 291 292 297 306 299 297 303 299 301 299 297 297 294 296 295 289 295 299 300 301 301 302 302 302 302 303 304 305 306 304 304 305
304 304 305 305 303 304 306 311 309 308 303 294 294 289 289 304 299 300 300 300 293 300 295 295 296 292 287 294 296 297 298 298 299 300 300 301 301 301 302 302 303 302 302 303
304 304 303 301 303 311 310 303 299 298 298 298 292 297 292 300 298 296 296 297 293 290 294 297 291 290 297 299 301 299 300 299 299 295 296 299 299 299 300 301 302 302 302 302
303 300 298 302 309 304 302 296 294 295 293 297 296 296 294 303 296 294 296 291 293 287 293 291 289 288 296 299 300 301 300 298 300 300 302 301 300 300 300 301 302 302 303 302
298 297 300 301 299 297 293 292 296 295 293 299 297 299 300 300 302 294 295 289 291 287 297 291 287 294 298 300 300 301 301 301 302 301 301 301 302 301 301 301 301 302 303 303
302 297 294 293 294 288 289 286 292 294 298 301 301 297 300 300 300 295 292 286 287 296 288 289 293 298 299 301 301 302 302 301 301 303 301 302 301 303 302 301 303 302 303 303
296 294 287 289 288 291 293 294 296 301 301 299 298 298 296 299 294 295 289 292 292 286 283 286 294 299 302 302 302 301 300 300 300 302 303 302 301 300 300 301 303 302 301 302
294 295 287 291 296 298 300 301 300 302 302 299 297 297 298 295 293 294 291 288 284 284 284 292 298 300 301 301 302 302 302 302 300 300 300 301 303 302 301 301 300 301 301 301
295 295 292 296 296 296 297 299 300 302 301 302 299 295 292 292 292 289 287 285 282 285 293 299 300 301 301 302 302 302 303 302 300 301 301 302 303 302 302 301 301 300 300 300
293 292 297 296 295 295 296 298 299 303 301 295 297 291 290 295 289 288 291 286 290 297 299 300 303 302 302 301 304 305 304 303 301 301 302 301 302 303 301 298 300 301 300 300

GFSNW_sfc_thetae_021.txt.gz
Theta_e
308 307 307 307 307 305 301 290 287 300 298 287 283 279 287 293 291 294 292 290 287 285 286 284 284 285 289 294 292 286 288 283 280 283 289 291 290 285 285 278 278 281 281 283
307 308 307 307 306 305 300 291 289 299 297 279 278 285 289 292 291 291 291 289 290 288 285 282 286 288 293 293 290 286 287 281 277 278 284 289 286 288 287 287 284 280 279 283
307 307 307 307 306 306 300 293 285 288 289 288 283 284 286 287 294 292 293 290 290 288 286 287 284 286 291 293 292 297 292 282 280 275 280 285 283 288 289 286 280 283 284 286
307 307 307 307 306 306 297 290 285 288 282 285 287 286 287 287 287 293 292 289 289 288 285 285 284 286 289 292 295 292 288 280 285 284 286 286 286 286 287 286 287 283 286 287
308 307 308 308 306 304 294 287 286 293 287 288 286 286 288 288 289 289 288 288 290 289 286 286 285 288 288 287 288 290 290 281 285 283 287 287 285 287 287 288 289 288 288 288
307 308 308 308 307 301 289 290 291 291 288 287 288 287 288 289 291 291 293 292 289 287 289 293 292 293 292 292 288 288 287 285 283 278 285 285 283 287 287 289 290 289 286 293
306 307 308 308 308 303 298 293 292 288 281 285 286 289 290 290 290 289 292 293 291 293 297 294 294 292 291 291 291 292 286 284 284 280 283 275 286 296 294 290 291 292 294 295
306 306 307 308 308 307 299 298 294 289 282 287 287 289 289 291 291 289 292 293 295 295 290 286 285 287 289 289 292 291 290 287 282 279 279 285 288 293 292 291 290 293 299 304
305 306 306 307 308 308 300 298 298 293 288 283 291 287 290 288 289 290 292 294 294 290 285 282 280 279 285 284 287 292 293 289 284 283 278 277 287 292 296 297 287 305 304 303
304 305 306 307 307 308 304 298 297 295 288 288 288 286 287 291 292 289 289 291 289 288 282 277 281 281 289 282 283 285 285 285 281 281 280 285 291 293 296 287 291 302 304 303
304 305 305 306 307 307 305 298 299 295 289 291 291 292 289 291 292 288 293 288 289 285 282 282 283 282 287 286 287 285 284 282 284 284 282 280 294 291 292 298 303 304 303 303
304 304 305 306 306 307 307 298 300 300 294 291 294 295 298 298 297 294 295 292 289 290 285 285 287 285 287 286 282 289 283 286 284 285 285 290 292 292 300 304 302 303 304 306
303 304 305 306 306 306 306 301 301 297 292 290 290 291 296 299 299 302 291 290 293 293 295 290 289 284 289 284 285 286 289 293 288 289 288 289 296 302 305 304 304 306 307 307
302 303 303 305 305 305 306 301 300 297 294 287 288 298 296 302 301 300 301 294 296 294 295 291 289 286 293 289 290 289 292 293 291 288 292 295 299 301 303 304 306 306 306 306
302 302 303 304 304 304 303 302 302 300 293 289 289 295 298 300 300 299 300 297 296 293 290 290 288 291 294 292 291 288 295 293 290 287 296 296 298 302 305 302 302 304 304 303
302 302 302 303 303 304 300 294 300 301 298 292 287 292 295 298 300 299 298 298 297 295 293 291 290 294 294 285 285 293 296 298 297 295 300 301 302 303 305 303 302 303 303 303
301 301 302 303 304 302 296 292 301 302 300 293 289 285 294 298 299 298 296 297 298 297 296 293 289 291 293 286 284 294 296 297 298 300 300 298 300 298 303 303 303 303 303 303
302 303 304 305 305 303 298 300 303 304 299 299 288 286 288 299 295 293 296 296 298 298 297 291 290 291 289 284 291 295 297 297 297 298 299 298 299 300 300 302 301 300 299 301
303 304 306 301 298 296 302 310 307 305 301 292 291 284 280 296 296 296 294 296 292 293 293 290 289 286 283 289 292 293 294 293 294 296 297 297 297 297 298 298 299 298 298 299
303 300 300 298 298 305 308 302 298 297 298 297 291 289 285 292 291 292 291 292 290 288 288 292 283 284 292 294 296 295 297 297 295 294 294 295 295 296 296 297 299 299 298 298
290 287 291 296 302 301 299 294 292 292 290 291 292 289 286 293 288 288 291 283 285 280 287 287 284 282 291 296 297 297 298 297 297 298 298 297 296 296 297 298 298 298 297 296
290 290 295 296 292 292 291 289 293 291 287 290 289 291 291 291 294 288 287 283 284 283 289 287 280 288 294 296 297 296 296 297 298 298 298 298 298 298 297 297 297 297 297 297
294 294 291 292 291 285 286 281 285 289 295 298 297 295 295 293 293 287 284 282 281 288 279 283 285 292 295 296 297 296 295 298 299 299 299 299 299 299 297 296 297 297 297 297
290 290 285 286 283 284 286 287 290 297 298 297 298 293 295 293 289 288 284 286 284 277 278 279 288 292 295 297 298 296 295 296 298 298 298 298 298 297 297 296 297 297 296 295
286 289 283 285 288 288 290 295 295 297 297 295 294 294 295 290 290 289 285 283 278 280 279 281 291 296 300 300 301 298 297 296 295 297 296 298 298 297 296 296 296 297 296 295
287 286 286 288 286 286 287 288 288 292 291 292 295 292 290 288 288 285 284 279 277 281 284 289 294 296 297 300 301 301 300 297 296 297 297 298 298 296 296 297 296 296 295 294
286 284 290 289 287 287 288 288 288 289 288 287 290 288 288 292 286 283 285 281 285 287 290 293 295 296 296 299 300 302 301 297 296 296 297 297 298 297 296 295 295 294 294 293

GFSNW_sfc_thetae_024.txt.gz
Theta_e
307 307 307 307 307 305 301 290 287 298 297 286 281 278 286 292 291 294 292 290 287 285 285 283 283 283 287 293 290 285 288 283 279 282 288 290 287 284 283 278 277 278 278 279
307 308 308 306 307 305 300 292 290 297 294 277 277 284 288 290 290 290 290 289 290 289 284 282 285 286 292 291 289 285 286 281 277 278 283 287 284 286 285 284 282 279 277 280
308 308 308 308 307 305 299 293 283 287 288 286 282 285 287 286 293 291 292 289 290 287 287 288 285 285 290 291 291 296 291 281 279 274 279 283 281 285 287 285 279 280 281 284
308 308 308 308 307 305 295 288 284 287 280 282 283 287 288 287 287 292 291 288 289 288 285 285 285 286 288 291 293 290 288 282 282 284 285 285 284 284 285 283 285 281 284 285
307 307 307 308 308 303 292 283 283 286 283 285 284 286 285 287 289 289 287 287 289 290 286 287 284 287 288 287 290 288 287 283 283 282 285 285 283 285 286 286 286 286 287 287
307 307 307 308 308 300 290 291 288 287 284 282 280 282 286 287 289 291 292 291 289 288 290 293 292 293 292 291 290 287 287 282 280 276 284 284 278 284 285 286 288 287 284 290
306 306 307 307 308 303 298 295 293 288 281 282 283 286 287 285 288 287 291 291 290 293 296 293 292 291 291 291 290 292 288 285 283 275 279 270 283 292 293 290 290 291 291 293
305 305 305 306 307 307 299 298 294 290 285 285 285 287 287 288 290 290 291 292 294 292 288 286 284 284 289 290 287 290 291 287 281 276 274 281 286 291 291 289 287 292 291 293
305 305 305 305 306 307 302 299 299 293 287 284 289 285 285 283 287 289 291 294 293 289 283 280 279 279 284 283 287 289 290 290 283 281 275 273 287 293 296 296 284 300 298 295
304 304 305 305 306 306 305 299 299 295 288 290 288 287 283 288 288 287 291 292 289 288 282 279 278 279 287 283 283 284 285 285 281 281 278 282 291 293 294 285 285 301 302 302
303 304 304 306 306 306 304 301 299 296 290 291 294 292 288 287 289 287 289 289 285 285 282 283 282 281 284 285 287 284 284 282 282 283 279 277 292 290 288 295 301 303 302 301
303 303 304 304 305 306 306 298 301 300 293 292 297 297 298 295 294 292 293 292 290 291 286 284 287 284 286 285 282 288 282 284 283 284 284 290 289 288 293 294 293 304 304 306
302 303 303 304 304 305 305 300 301 297 293 292 287 289 294 296 296 298 290 293 293 293 296 290 289 283 287 283 285 285 289 292 286 286 285 286 291 301 300 302 304 305 306 304
301 302 303 303 304 305 305 299 301 297 294 286 287 296 294 299 297 295 296 296 297 295 295 291 289 286 292 288 290 288 292 293 291 288 290 295 297 301 302 303 304 304 305 304
301 301 302 302 302 303 302 300 301 301 293 287 288 293 295 297 297 297 297 297 296 294 291 290 288 291 293 291 289 290 295 292 289 287 296 295 296 302 303 302 302 303 303 302
300 301 302 302 303 303 300 294 300 302 299 290 286 292 293 295 299 297 296 298 297 296 293 292 291 293 293 286 284 292 296 298 298 295 300 300 301 303 303 301 302 303 302 302
301 302 302 302 303 301 296 292 299 302 300 291 289 285 291 296 296 295 294 297 298 297 296 293 288 289 293 288 283 292 295 297 297 299 299 296 298 298 302 302 302 303 302 303
303 302 303 304 305 303 298 301 303 302 297 296 289 286 287 296 295 293 294 295 297 297 296 295 290 289 287 284 290 294 294 296 296 297 298 296 299 299 299 301 301 299 299 300
301 302 304 300 297 296 300 308 307 303 298 292 291 283 279 293 296 294 295 297 292 296 293 290 288 284 282 288 290 291 293 292 294 296 296 296 297 298 298 297 296 295 297 298
299 295 296 297 296 303 304 303 298 295 296 297 292 292 285 289 289 289 289 292 289 287 288 291 282 283 290 292 294 294 295 296 294 294 293 295 294 297 296 296 296 295 295 296
287 283 289 292 299 297 298 293 292 290 288 290 291 291 288 291 285 284 289 284 285 281 284 286 282 280 289 294 295 297 296 297 297 296 295 295 296 295 295 296 296 295 295 295
289 289 294 293 292 289 290 287 291 290 286 290 291 292 291 289 291 288 289 283 283 283 288 284 281 287 292 295 296 295 295 297 297 297 296 296 296 296 296 296 295 295 294 294
291 292 290 291 290 279 284 280 285 289 295 297 296 292 296 294 294 288 284 283 280 286 279 282 284 290 294 295 296 295 295 297 298 298 298 297 297 297 296 295 295 294 293 294
286 287 283 286 280 283 283 284 287 296 296 294 294 295 294 296 291 288 284 286 283 276 277 279 286 291 294 295 296 295 294 297 297 297 297 297 296 295 296 296 295 293 292 293
282 286 280 282 286 287 290 294 294 295 293 292 289 292 293 291 290 289 284 283 277 278 278 281 288 292 295 296 297 295 294 295 296 295 296 296 296 295 295 295 294 294 293 292
284 283 283 285 285 285 286 286 287 289 288 288 290 288 288 288 287 284 284 280 277 280 282 287 290 294 296 297 298 298 299 296 296 295 297 297 297 296 295 295 294 293 292 291
284 283 285 285 285 285 286 287 287 287 286 284 287 285 285 290 286 286 286 281 282 285 288 289 292 294 296 297 299 301 299 296 295 295 296 297 297 297 295 293 293 292 292 291

GFSNW_sfc_thetae_027.txt.gz
Theta_e
309 308 308 306 307 306 303 297 294 303 303 294 289 289 289 292 292 295 292 293 290 288 287 286 286 285 289 294 294 288 292 288 283 285 291 293 290 288 290 284 283 285 284 285
309 308 307 307 308 306 300 293 293 303 301 288 288 289 289 291 291 291 291 290 291 292 288 284 287 288 293 294 292 290 292 286 280 282 288 291 287 289 290 290 289 285 282 286
309 308 307 307 308 307 302 295 290 294 295 292 288 286 287 287 293 292 293 291 292 290 287 290 287 288 292 294 293 296 294 288 284 279 282 287 285 287 289 288 285 285 286 288
309 308 307 307 307 306 299 292 290 292 286 287 286 287 288 287 287 293 293 289 290 289 285 286 286 289 290 292 294 294 291 284 286 287 287 288 287 286 287 286 288 284 288 289
309 307 307 307 307 305 296 289 289 292 288 288 288 288 287 287 289 289 287 287 289 290 287 288 285 288 288 287 292 291 291 285 287 284 287 287 284 287 288 288 288 288 289 289
307 306 306 306 307 304 296 294 293 292 289 287 286 287 287 287 288 290 293 290 289 288 291 293 294 295 293 292 289 289 289 287 285 280 285 285 281 286 288 289 291 290 286 291
305 305 306 306 307 306 299 297 295 289 286 286 288 288 289 287 289 288 291 293 291 295 298 297 295 294 292 291 291 291 288 287 286 281 283 274 286 294 293 292 294 296 293 294
304 305 305 305 306 307 300 299 295 290 285 288 288 289 289 290 290 289 291 295 297 299 295 288 287 289 290 291 290 287 290 288 283 280 279 283 286 291 291 291 291 297 296 296
303 304 304 305 306 307 304 300 300 293 287 288 290 288 289 287 288 289 292 297 300 295 291 287 281 281 285 284 288 289 290 290 285 283 278 276 289 294 296 296 287 299 298 297
304 304 304 304 305 306 304 302 301 296 288 292 291 288 287 290 289 287 290 293 294 294 289 282 282 281 287 283 283 285 284 285 282 281 280 284 293 294 295 284 291 302 303 302
302 303 304 304 304 304 305 302 301 296 291 293 294 295 290 290 289 285 292 291 293 292 287 285 285 284 285 284 287 284 284 283 283 284 281 279 293 292 288 296 301 298 301 306
301 301 303 303 304 304 304 299 303 302 294 293 299 299 300 298 296 291 292 293 292 294 290 289 288 285 287 286 283 288 284 284 284 285 285 292 291 288 294 298 296 297 299 309
300 301 301 302 303 304 303 301 303 299 293 293 294 294 299 300 300 301 290 294 297 296 297 290 290 285 289 285 286 285 290 291 284 286 288 286 296 299 295 294 294 298 306 308
299 300 300 301 301 302 302 299 303 300 295 287 292 300 297 302 300 299 299 298 299 297 296 291 290 288 293 290 291 288 291 293 291 290 292 295 296 297 301 303 304 304 305 308
300 301 301 301 301 302 303 303 302 302 294 288 290 297 300 301 300 297 297 295 294 295 292 290 289 294 293 296 294 291 296 293 290 289 297 295 295 300 300 301 301 302 302 305
301 302 302 302 301 302 300 294 300 301 300 291 287 298 298 299 302 299 295 294 295 297 294 293 297 296 294 290 290 296 298 299 300 297 300 299 301 301 302 301 301 302 301 302
302 301 302 302 302 301 296 294 300 303 300 291 288 291 297 299 301 301 299 299 297 297 297 295 295 297 296 294 290 296 298 299 300 301 300 296 298 297 301 301 301 302 302 302
301 301 301 303 305 302 298 302 304 302 296 295 289 290 293 300 298 297 301 297 297 297 298 298 295 297 297 292 296 298 298 299 300 300 300 299 300 299 298 298 300 299 299 299
301 299 304 303 301 297 299 306 307 302 297 291 291 288 288 297 299 299 297 299 293 297 294 295 294 295 292 296 296 297 298 298 297 300 301 300 298 298 296 297 297 297 297 299
298 296 297 297 298 301 302 301 296 294 295 295 291 296 290 295 296 297 296 297 294 291 295 298 293 294 297 299 300 300 300 300 300 298 297 298 297 296 295 295 296 297 297 298
292 287 289 293 298 300 299 294 293 291 289 294 294 294 291 298 291 292 296 294 292 288 292 293 292 292 297 301 301 302 302 302 302 302 301 301 299 297 295 294 296 296 296 296
293 292 295 294 293 292 291 290 292 290 288 294 292 293 292 294 297 294 293 292 292 286 293 291 290 295 298 301 302 301 303 303 302 303 301 301 299 298 296 295 295 294 295 295
294 291 289 290 290 283 284 282 287 290 294 296 296 293 296 295 296 294 292 289 289 293 289 288 294 298 299 301 301 301 303 303 303 302 302 301 300 299 297 295 296 295 295 295
286 286 282 285 283 285 288 289 291 295 295 295 295 295 293 296 292 291 289 291 292 287 284 286 295 298 301 302 301 301 302 303 302 301 301 300 299 298 297 296 296 295 294 294
284 286 279 284 290 291 292 294 295 294 296 294 292 293 296 292 291 292 289 288 286 288 288 293 297 298 302 302 301 302 302 302 302 301 301 300 300 298 297 297 296 296 295 294
285 284 282 287 287 289 290 289 291 294 293 293 293 292 291 291 291 288 288 287 286 291 293 297 297 300 302 303 303 303 303 302 301 302 301 301 300 299 297 297 296 295 294 294
284 283 287 287 287 288 290 292 291 294 291 288 292 289 289 293 288 288 291 289 294 295 297 298 299 300 303 304 304 304 304 303 302 303 302 302 301 300 298 295 295 295 294 294

GFSNW_sfc_thetae_030.txt.gz
Theta_e
310 309 308 307 307 306 304 304 297 310 310 297 299 292 291 293 294 297 294 295 293 291 291 289 289 289 291 296 296 291 294 290 285 288 293 296 292 291 289 285 284 288 288 292
310 309 308 307 307 307 302 298 299 310 306 292 290 292 291 293 293 293 293 292 294 295 292 286 290 291 296 296 294 292 294 289 283 285 291 294 290 292 290 292 290 287 286 291
309 309 308 307 307 307 303 298 293 300 301 300 291 290 290 291 295 295 295 293 295 293 290 293 288 290 293 295 295 297 295 291 287 283 286 290 287 289 291 290 287 287 289 292
309 307 307 307 306 306 303 297 293 296 293 295 294 293 291 289 289 295 296 292 292 290 287 290 289 291 292 294 295 295 292 287 289 290 291 290 289 288 289 289 290 287 290 292
306 305 305 306 306 306 303 295 292 296 295 295 292 292 290 289 290 291 290 290 292 291 288 289 287 290 290 288 293 291 292 287 290 287 290 290 288 290 290 290 291 291 292 291
305 305 305 305 306 306 298 298 296 292 292 292 289 291 291 291 293 294 295 293 291 291 294 296 297 296 295 294 289 289 289 287 287 284 289 289 285 289 290 291 293 293 289 294
305 304 305 305 305 306 301 299 297 290 288 290 289 290 291 290 293 292 294 295 292 298 302 301 300 298 297 297 295 292 288 289 287 285 287 278 289 294 295 293 294 296 296 297
304 304 304 304 305 305 304 301 296 291 286 290 291 291 290 291 292 294 295 296 300 304 299 293 291 292 293 294 294 291 290 289 286 283 283 287 290 293 292 293 293 299 298 300
304 305 304 304 305 305 306 306 302 294 288 291 293 289 292 288 288 292 295 300 304 302 294 290 285 285 287 287 289 291 290 290 286 285 280 278 291 297 300 298 289 301 302 302
303 303 303 304 304 304 305 305 308 297 289 293 295 290 289 291 290 288 291 294 297 301 292 289 286 285 290 284 284 286 286 285 282 283 282 285 294 296 299 286 293 304 305 305
302 302 302 302 303 304 304 303 309 300 293 294 297 298 293 293 291 287 293 293 296 295 291 289 289 288 289 286 289 285 285 284 286 285 282 281 294 292 289 298 304 304 305 306
301 301 301 302 302 303 304 300 307 306 296 295 301 301 302 300 298 293 292 293 293 294 292 291 292 290 290 289 285 289 285 285 285 285 286 293 293 289 294 299 301 303 303 305
299 300 300 301 301 302 302 302 304 301 295 296 298 299 304 307 306 306 292 296 300 296 298 291 292 288 292 286 288 287 291 293 287 287 291 289 293 299 298 297 300 300 300 302
300 301 302 302 302 302 302 300 304 300 295 288 296 304 303 307 307 305 304 301 304 301 298 292 290 289 296 292 293 292 293 296 292 292 295 295 296 298 300 300 301 301 307 311
301 302 303 302 302 302 302 302 302 301 295 289 292 301 305 306 306 303 303 301 298 295 292 291 290 296 295 297 297 294 298 294 292 290 297 294 296 299 301 300 301 302 303 307
301 302 301 301 301 301 301 295 302 304 301 291 288 303 302 304 306 305 301 299 297 295 295 294 296 301 295 292 293 299 301 302 301 297 300 299 299 298 298 298 301 302 302 304
301 301 302 301 301 302 297 299 301 304 302 292 289 291 303 303 304 303 300 300 298 296 296 296 298 298 296 296 292 299 300 302 301 302 300 296 298 295 298 299 301 302 302 303
302 301 300 301 305 302 299 303 304 304 297 295 289 291 298 304 301 300 302 299 298 297 297 301 300 299 299 294 298 299 300 301 300 299 302 300 300 299 298 301 301 300 299 300
301 299 300 305 303 298 301 304 308 303 297 290 291 290 291 303 301 305 300 300 293 299 295 297 297 296 294 298 298 299 300 300 300 300 300 299 299 297 298 300 299 301 297 298
299 298 300 297 303 300 302 301 295 293 294 294 291 298 293 299 299 299 301 301 296 293 296 300 296 297 302 302 302 303 302 303 302 299 296 298 298 295 296 298 300 300 297 298
296 293 292 298 301 302 300 295 292 291 289 293 295 295 292 300 294 296 301 298 300 292 296 296 296 298 301 304 303 305 303 305 303 303 301 300 298 296 297 297 299 298 298 297
295 295 296 295 294 295 291 291 294 293 290 296 295 294 294 295 300 297 300 295 298 289 300 295 293 299 303 303 303 304 305 305 304 303 301 300 298 297 297 298 298 299 300 298
297 292 288 291 293 285 284 283 287 291 296 293 294 294 299 295 296 296 296 292 292 301 294 292 297 302 303 304 304 305 306 306 304 303 302 301 299 298 298 298 299 298 299 300
290 288 284 287 285 285 288 289 292 295 294 295 295 294 294 296 288 289 288 296 297 290 288 290 297 303 304 305 304 305 304 305 304 303 303 300 299 298 298 299 299 297 296 298
287 288 281 287 292 293 293 290 292 294 296 294 292 294 296 294 289 291 293 291 288 292 293 298 301 304 306 305 305 305 305 306 305 305 304 302 300 298 298 299 300 299 298 297
289 287 285 290 288 288 290 292 292 294 294 295 294 291 291 292 293 289 290 289 288 293 300 302 303 305 306 307 307 306 306 307 306 306 305 304 301 299 299 300 300 299 297 297
286 289 292 290 290 289 290 291 292 295 291 289 292 288 288 297 290 289 296 292 297 301 302 304 306 305 307 308 307 307 307 307 307 306 306 305 303 302 300 298 299 299 298 297

GFSNW_sfc_thetae_033.txt.gz
Theta_e
310 310 309 308 307 306 306 307 300 312 309 297 301 295 294 294 296 299 297 296 294 293 293 290 290 290 294 298 298 291 295 292 287 289 295 298 296 292 291 283 285 289 287 287
310 309 307 307 307 306 306 301 303 311 307 294 296 298 296 296 295 297 295 293 295 296 291 288 293 294 298 298 296 293 296 290 284 287 292 295 291 293 294 293 291 286 283 286
309 308 307 307 306 306 307 302 296 302 302 303 297 296 295 293 298 297 297 295 296 294 292 295 292 293 295 296 295 298 297 291 287 283 287 288 285 290 293 292 285 287 288 289
307 307 306 306 306 306 307 304 298 298 294 296 296 296 297 293 292 296 296 295 294 293 290 292 291 294 294 295 297 296 292 286 288 290 292 292 290 290 290 289 290 286 289 289
306 306 306 306 305 305 306 298 296 299 296 298 294 295 293 294 294 295 294 292 295 294 289 290 289 292 294 292 294 293 294 286 289 287 291 292 289 291 291 291 292 291 291 290
305 305 305 305 306 306 300 300 299 296 294 295 294 292 292 292 295 297 297 295 294 294 296 298 300 300 299 298 294 289 289 288 287 284 290 290 286 290 291 292 294 293 289 294
305 305 305 305 305 305 306 301 297 292 291 294 293 293 292 292 292 291 296 296 296 300 304 304 303 302 300 299 297 295 287 288 289 286 288 280 291 296 295 293 295 296 296 297
305 304 305 304 304 305 305 308 299 293 288 292 294 294 293 295 295 294 296 299 303 305 300 296 293 294 295 295 297 294 293 289 286 283 284 288 291 294 293 293 293 299 298 299
303 304 303 303 304 305 305 307 307 297 289 293 297 294 295 291 292 294 297 302 306 304 297 294 286 287 289 289 291 294 291 290 287 286 281 279 290 296 301 301 290 301 303 301
301 302 302 303 303 304 305 304 310 300 292 295 297 293 292 294 293 290 295 297 298 303 295 291 288 288 293 287 285 288 287 286 283 284 283 287 295 297 300 287 291 305 306 306
301 301 302 302 302 303 303 303 308 303 296 299 301 300 295 295 294 289 295 295 297 296 293 291 291 291 293 289 292 289 286 285 286 287 283 281 296 294 289 298 301 301 305 305
300 301 301 301 302 302 302 297 306 311 300 298 304 303 304 302 300 296 295 295 294 297 293 292 295 292 294 292 286 292 285 288 285 285 286 296 297 293 295 294 294 300 304 307
300 301 302 303 303 303 302 300 303 303 297 296 300 303 306 310 307 307 293 297 299 298 298 293 291 289 295 288 291 291 293 296 286 287 293 292 296 297 299 302 303 303 306 306
300 301 302 303 303 303 302 301 303 304 297 290 299 308 304 308 307 306 306 304 305 303 299 293 291 289 298 295 295 293 297 297 293 292 293 296 296 295 296 300 302 301 304 306
300 301 302 302 302 302 302 302 301 302 295 292 295 302 308 309 309 306 305 304 301 298 292 292 291 295 295 300 299 295 299 295 291 288 295 295 294 296 298 298 300 302 303 305
300 301 302 302 301 301 301 296 306 304 302 292 288 304 304 308 309 305 303 302 300 296 293 294 296 304 299 293 293 299 300 301 299 295 299 298 297 297 299 298 301 302 303 304
301 301 301 301 301 303 299 298 301 305 303 292 289 294 303 307 307 305 304 304 299 296 294 294 298 300 302 297 293 299 299 300 301 301 300 296 298 296 300 302 302 302 302 303
301 302 301 300 304 302 300 305 305 305 298 295 289 292 299 307 303 301 304 298 299 297 296 298 299 302 301 293 300 300 301 300 301 299 301 298 299 300 300 301 302 298 299 300
301 302 301 303 301 299 302 303 306 304 298 290 291 290 293 305 301 305 303 303 293 300 294 298 301 298 293 299 300 300 301 299 299 299 299 298 298 299 299 299 299 297 297 298
301 302 301 300 301 300 304 301 297 294 294 293 290 298 293 299 298 299 301 302 297 293 299 303 299 298 305 304 304 303 303 302 301 297 296 296 296 298 299 298 298 297 298 297
300 296 296 300 303 301 301 295 292 292 289 292 296 296 293 301 295 296 301 299 300 293 298 296 296 298 303 305 304 305 304 304 303 302 301 299 298 298 299 298 298 297 297 297
296 296 297 299 296 295 290 291 295 294 291 298 298 296 298 299 300 297 301 296 299 291 303 296 294 298 302 303 303 304 305 304 304 303 299 298 298 300 300 300 300 298 298 299
301 295 291 293 294 286 286 286 291 293 293 294 295 293 298 301 298 296 296 293 293 302 296 294 297 301 303 304 304 304 305 304 304 302 300 298 298 300 300 299 300 301 298 299
294 290 286 289 287 290 291 291 290 294 296 295 296 295 295 298 290 290 287 296 298 292 290 291 298 302 303 304 305 304 304 304 303 302 300 299 299 299 299 300 300 300 300 300
290 291 283 288 294 293 297 296 297 297 296 295 294 295 296 295 289 288 291 291 290 293 294 299 302 305 307 305 305 304 305 305 304 304 301 300 299 299 299 300 300 300 300 300
292 290 287 291 289 289 291 292 292 295 296 296 295 292 291 292 293 288 291 290 290 296 302 304 306 307 309 308 306 307 307 306 306 305 304 303 300 300 301 301 301 299 299 300
289 290 293 291 290 289 289 291 291 295 292 289 290 288 288 294 291 289 296 292 293 298 303 306 308 307 308 308 307 307 307 307 307 306 306 304 304 303 301 300 301 301 300 299

GFSNW_sfc_thetae_036.txt.gz
Theta_e
310 309 308 307 306 305 306 307 299 313 311 297 301 296 297 297 297 299 298 297 294 292 293 291 291 290 294 299 297 291 296 291 286 288 294 296 294 292 291 285 283 286 285 285
309 308 307 307 306 305 303 303 303 312 310 296 296 298 298 298 296 297 296 294 296 297 293 289 292 293 298 298 296 293 295 289 283 285 290 294 291 293 291 290 291 285 282 285
308 307 307 306 306 305 304 304 297 303 304 303 298 295 294 295 299 297 297 296 297 295 293 295 292 293 297 298 296 298 296 290 286 282 285 289 286 289 292 290 286 287 286 288
308 307 306 306 305 305 306 305 299 301 295 296 297 297 295 294 293 298 298 295 295 293 290 292 290 294 295 297 299 295 292 287 289 289 290 290 289 288 290 289 290 286 287 288
307 306 307 306 305 304 305 298 296 298 296 298 297 296 294 293 295 295 293 293 295 295 292 293 291 293 294 294 297 295 295 285 289 287 290 290 288 291 291 291 291 290 290 289
306 306 306 306 306 305 302 303 302 296 294 297 296 294 293 293 295 296 297 296 294 293 295 299 300 300 301 299 294 290 288 287 287 284 290 289 285 289 290 291 292 291 287 293
304 304 304 304 306 305 304 303 302 293 288 293 295 294 296 294 295 293 296 297 295 300 305 303 302 302 302 300 299 296 288 287 287 285 288 279 290 296 296 293 294 295 294 297
303 304 303 303 304 304 303 306 302 296 289 292 293 296 295 295 297 296 297 298 302 305 301 295 294 294 295 296 298 296 293 288 286 283 284 288 291 294 294 291 291 299 297 297
302 302 302 303 303 304 304 304 310 299 291 292 296 294 295 294 293 294 297 301 305 303 298 294 287 286 290 287 292 297 293 291 285 285 281 279 290 297 298 297 287 301 300 302
301 302 302 302 302 303 302 302 311 302 292 297 298 293 294 297 294 290 295 297 298 303 296 290 290 289 294 288 287 289 288 287 283 284 282 286 295 296 298 284 289 299 301 299
301 301 302 302 302 302 301 300 306 302 295 297 300 301 297 298 295 290 295 294 295 295 292 292 291 290 292 292 293 288 287 285 286 286 284 281 297 294 289 294 296 296 298 300
300 301 301 302 304 304 303 297 304 308 301 299 304 302 303 302 301 297 297 294 293 295 293 292 292 291 293 291 286 294 286 286 286 285 287 296 297 294 296 296 294 298 298 300
300 301 301 302 303 304 303 300 302 301 297 296 299 300 308 309 308 307 295 296 298 298 299 293 291 288 294 288 291 292 293 296 287 287 293 292 295 297 296 297 298 304 303 302
300 300 301 302 303 303 302 299 301 300 298 290 297 307 304 308 309 308 306 303 304 302 301 294 291 288 297 292 295 293 294 296 293 292 294 294 296 295 296 297 301 303 305 306
300 301 301 302 302 302 302 301 302 303 295 291 293 300 306 310 307 306 307 305 302 300 294 292 290 294 295 298 298 294 298 294 291 288 295 294 294 297 297 297 299 301 302 303
300 301 302 302 302 302 300 298 306 305 303 291 287 302 302 306 307 305 303 302 302 299 294 292 295 301 296 292 292 298 300 301 299 295 299 298 298 298 299 300 300 301 301 302
300 301 301 301 302 301 298 298 301 305 303 292 288 293 303 306 306 306 303 304 300 298 294 292 294 299 300 296 292 299 299 301 301 301 299 296 297 296 300 301 300 301 301 302
300 301 301 303 303 303 300 305 305 306 299 295 288 292 298 307 302 301 306 299 300 297 295 297 296 300 302 294 300 300 300 301 299 298 299 299 300 300 298 300 299 298 298 300
301 302 302 304 303 300 302 305 306 306 298 290 290 289 290 303 302 303 301 302 293 299 292 295 300 298 294 299 300 300 300 299 297 298 298 299 298 299 297 297 297 296 296 298
302 302 302 297 299 305 303 300 298 294 295 293 288 296 292 297 297 298 301 301 296 293 297 301 297 297 304 303 303 303 303 302 300 295 295 296 297 298 297 296 297 297 297 297
299 295 296 301 305 299 297 295 292 291 288 292 294 296 294 302 295 296 302 298 300 292 296 296 296 294 300 304 304 304 304 303 301 299 299 298 299 298 299 297 297 298 297 296
295 295 299 301 299 296 291 292 295 294 291 294 294 296 298 298 303 297 300 296 297 291 301 295 291 292 304 304 303 305 304 304 301 299 297 298 300 300 299 300 298 298 298 298
302 297 292 295 294 286 287 286 290 289 292 297 296 295 300 299 299 296 295 292 294 302 295 293 296 302 304 304 305 305 305 304 301 299 299 299 299 300 300 300 300 299 299 298
296 291 284 288 288 290 291 291 292 295 296 296 294 294 296 301 295 291 288 295 298 291 289 291 295 303 304 305 305 305 304 304 302 300 299 299 299 299 300 300 302 301 298 298
292 292 283 289 293 293 293 293 293 294 297 295 293 293 294 295 292 289 289 288 288 292 292 297 302 306 306 305 306 305 305 304 303 302 300 299 299 300 299 300 301 302 300 297
293 291 288 291 290 290 291 291 290 294 292 294 294 292 291 291 292 286 288 288 287 291 297 302 306 307 307 307 308 306 305 306 305 303 302 300 300 299 300 300 299 300 301 300
290 290 294 292 290 289 290 290 291 294 291 288 290 286 287 292 286 289 286 284 286 294 294 304 307 307 308 307 308 308 307 307 305 305 303 302 302 302 301 299 300 300 300 300

GFSNW_sfc_thetae_042.txt.gz
Theta_e
309 308 307 307 306 304 300 294 292 305 301 289 289 288 294 296 296 299 295 294 292 289 289 287 286 287 291 297 295 289 290 285 281 285 292 293 290 286 285 276 277 281 278 280
308 306 306 306 306 305 298 292 293 303 300 283 285 290 293 295 294 296 293 292 292 292 287 284 289 291 297 297 293 289 290 283 281 282 286 291 288 289 289 286 285 278 278 280
307 305 306 306 305 305 296 293 288 292 294 292 288 287 290 290 298 296 294 292 292 290 288 289 287 288 294 295 296 299 296 289 285 280 284 288 285 287 289 287 281 281 282 283
306 305 305 305 304 304 297 292 288 289 284 286 287 288 290 290 289 293 292 290 291 288 283 286 285 289 290 294 298 295 293 286 288 288 289 289 288 287 288 286 286 281 284 284
304 304 304 304 304 304 295 288 286 288 286 288 288 289 287 289 291 290 289 287 290 289 284 286 284 287 288 287 292 289 294 286 288 284 288 288 286 289 289 288 288 287 287 285
303 303 303 304 304 301 291 294 293 291 287 285 284 285 287 288 291 291 293 290 288 288 290 293 293 293 293 292 289 286 288 286 285 280 286 285 282 288 290 290 291 288 283 288
303 302 303 303 303 301 293 292 296 286 281 285 286 289 288 289 290 288 292 291 288 293 297 296 294 293 293 293 292 290 287 286 285 281 282 275 288 294 293 290 292 293 292 294
302 302 302 302 302 302 292 293 291 293 286 286 287 289 288 289 290 289 290 293 293 294 292 288 287 286 290 293 291 288 292 288 282 279 278 284 289 292 290 288 287 292 290 292
302 302 302 302 301 302 293 292 296 296 290 284 291 288 289 285 284 287 291 294 295 292 290 288 281 279 286 282 289 295 293 292 285 282 276 274 288 293 295 294 282 293 292 291
302 302 302 302 301 302 297 291 292 292 289 290 290 286 285 287 286 287 289 291 289 291 287 280 280 282 290 280 279 282 286 286 282 281 280 282 292 293 295 282 283 292 293 293
301 301 302 301 302 302 299 294 295 291 289 289 292 292 288 287 288 286 287 287 288 285 283 286 284 282 286 283 286 277 279 280 281 284 281 277 294 292 286 291 294 295 294 294
301 301 301 302 301 301 302 292 296 296 291 289 294 294 295 294 293 290 286 289 290 291 287 289 288 286 286 283 277 288 282 286 285 285 283 291 294 291 294 297 294 294 294 296
301 301 301 301 301 301 300 296 294 291 289 288 287 289 294 296 296 298 289 291 293 293 296 292 290 286 289 283 284 287 292 294 286 287 290 289 292 296 297 298 296 297 299 298
300 301 301 301 302 301 302 296 294 294 291 285 285 295 294 298 297 297 298 297 299 296 297 293 290 286 292 287 289 287 290 292 291 289 293 293 293 294 296 297 298 298 301 301
300 301 301 301 301 301 300 296 294 295 290 283 285 292 294 297 296 299 298 297 296 295 293 291 289 292 291 292 292 289 295 293 289 287 294 291 292 296 298 297 297 299 299 299
300 301 301 301 301 301 295 288 300 296 296 290 283 290 292 296 300 300 298 298 297 297 294 293 293 296 291 288 287 295 299 300 298 295 297 295 297 298 298 297 298 299 299 301
301 301 301 301 301 296 291 289 295 300 300 291 286 286 291 297 300 302 299 299 299 298 295 292 293 294 294 290 287 296 299 299 299 299 296 295 297 294 297 298 298 299 300 300
300 300 301 301 302 300 296 296 303 302 296 295 286 286 287 296 291 292 301 297 298 296 295 295 292 294 294 289 296 299 299 297 296 295 296 297 299 297 297 298 298 297 296 297
301 301 302 299 296 295 298 306 305 303 296 288 288 284 281 293 291 292 293 298 292 297 291 292 294 292 288 296 296 298 295 292 293 295 294 296 297 296 296 296 296 295 295 296
301 299 295 294 297 308 304 298 295 294 294 293 287 291 287 293 293 292 292 292 293 288 292 297 291 290 299 300 300 299 296 296 294 292 291 292 296 295 296 295 296 296 295 295
291 287 288 292 299 293 290 287 290 289 287 289 290 290 289 294 291 290 293 288 290 288 289 292 291 287 296 301 300 298 296 295 294 294 295 295 297 296 296 296 297 296 295 294
292 291 293 291 292 290 287 286 292 288 287 290 289 289 290 291 294 293 290 287 291 285 296 292 286 293 300 302 301 296 294 295 294 295 296 296 298 298 297 297 296 296 296 295
295 292 289 289 288 280 285 282 283 282 287 289 287 284 288 291 290 287 290 287 287 292 285 289 289 292 297 298 302 297 295 295 295 295 296 297 297 299 298 296 297 297 295 295
291 290 277 284 284 286 285 282 283 286 286 286 285 283 284 286 284 286 285 289 287 284 282 283 287 289 291 295 303 299 296 295 294 295 296 295 296 295 298 297 297 296 294 294
289 288 277 284 287 286 285 285 284 286 286 284 283 283 284 283 283 288 287 285 282 283 281 285 286 287 293 303 303 303 299 295 294 295 295 295 295 294 294 296 296 297 295 294
290 287 284 285 284 283 283 283 283 286 285 285 284 283 283 285 286 284 281 279 278 281 285 287 289 291 295 301 302 302 303 297 295 295 296 296 295 294 294 296 297 296 296 294
289 285 287 285 284 283 283 284 285 287 285 281 283 281 282 286 282 281 283 281 284 287 289 291 292 292 293 299 303 304 303 303 298 296 296 296 296 296 295 293 295 296 297 296

GFSNW_sfc_thetae_045.txt.gz
Theta_e
308 306 306 306 305 304 302 292 291 303 300 289 286 286 292 295 294 297 294 292 290 288 288 285 285 285 289 295 293 287 289 284 280 285 291 293 290 286 285 278 276 278 279 279
307 306 305 305 305 304 299 293 291 302 298 281 283 288 292 293 292 293 292 290 291 290 286 282 288 289 295 295 292 288 289 283 281 281 284 290 288 289 289 287 285 279 277 279
306 305 305 305 304 304 297 292 286 290 291 289 286 286 288 289 296 293 292 291 291 288 286 287 285 287 292 293 292 299 294 288 285 279 283 287 285 287 289 287 282 280 281 283
304 304 304 305 304 304 296 289 286 287 282 284 285 285 289 288 287 292 290 288 289 287 282 284 284 287 288 291 295 292 292 285 287 288 288 288 287 286 287 286 287 283 284 284
304 303 303 304 303 303 293 287 285 287 285 286 285 286 285 286 289 289 288 286 289 287 283 285 284 285 285 285 289 289 293 283 287 284 287 287 285 287 288 288 288 287 287 286
303 303 303 303 304 299 290 291 291 292 285 284 282 283 285 286 288 290 292 289 286 286 288 291 291 292 291 290 287 285 286 288 285 280 285 284 281 288 289 289 291 289 283 289
303 303 303 303 302 299 292 291 292 287 280 283 284 287 287 286 288 286 290 291 286 291 294 293 291 291 290 291 290 290 286 286 286 280 282 273 286 294 293 289 290 292 290 292
302 302 302 302 302 301 292 291 289 288 285 285 287 288 287 287 288 287 289 290 292 293 289 285 284 285 288 292 290 288 291 288 283 278 278 283 286 292 289 287 286 292 290 292
302 302 302 302 302 301 292 290 292 293 286 281 290 286 287 282 282 284 288 292 294 290 287 284 280 279 285 282 289 294 293 290 286 282 277 275 285 293 295 293 281 292 292 291
302 302 302 302 301 302 296 292 292 290 287 287 288 284 283 285 282 280 285 289 287 293 286 284 281 281 290 281 280 283 285 286 282 282 280 282 290 293 294 280 282 292 293 293
302 301 302 302 301 301 298 293 293 293 288 287 289 290 284 284 284 280 284 284 285 284 282 287 283 283 284 281 284 278 278 279 281 283 280 276 293 292 286 289 292 294 295 294
301 301 301 302 301 301 300 291 295 295 290 287 290 292 294 292 291 289 289 285 287 289 284 286 286 284 284 282 277 288 279 286 284 285 284 291 295 293 294 293 293 295 295 296
301 301 301 302 301 301 300 296 296 293 288 285 284 287 292 294 294 296 285 288 292 290 295 289 288 285 288 279 280 281 287 293 286 287 290 290 295 295 296 296 296 297 298 298
301 300 301 301 301 301 301 295 296 293 290 284 284 293 292 297 295 293 294 293 294 296 296 291 289 286 292 287 285 286 289 291 290 288 292 294 295 292 295 296 298 297 298 299
301 301 301 301 301 301 299 296 294 296 287 283 283 291 293 295 295 295 295 294 294 294 292 291 289 292 290 291 290 288 292 292 287 288 295 293 291 295 297 295 294 297 297 298
300 301 302 302 301 301 294 288 296 294 294 289 284 288 290 294 296 297 293 294 292 295 293 293 294 296 291 286 287 293 296 299 298 295 298 296 295 297 297 295 297 298 298 299
300 301 301 301 301 298 290 289 294 300 298 290 286 283 290 293 295 295 295 296 295 297 295 292 293 294 293 289 287 293 295 297 299 298 294 292 295 294 296 297 298 299 299 299
300 301 301 302 302 300 295 296 301 302 293 294 285 284 286 293 289 291 294 293 297 297 295 295 292 294 293 288 294 296 298 299 297 294 294 296 296 296 297 298 297 296 296 296
300 301 303 299 294 294 298 306 304 300 295 286 285 284 281 291 289 290 294 296 291 297 292 292 293 291 288 293 297 296 295 293 292 294 294 296 296 296 296 296 295 294 294 295
301 298 295 292 297 306 304 297 295 293 293 293 286 291 285 290 288 291 293 294 291 288 292 296 291 289 293 292 296 299 296 295 294 291 291 292 294 295 295 295 296 295 294 294
290 288 289 291 298 292 289 286 290 289 286 289 288 290 287 290 288 289 294 291 288 288 290 290 288 286 288 291 293 297 296 294 293 294 294 295 297 296 295 295 296 296 295 293
291 291 293 291 290 288 286 284 290 287 286 289 287 286 288 287 291 291 291 288 291 284 292 291 285 287 290 291 292 294 298 294 293 295 295 296 298 298 297 297 297 295 294 294
295 291 289 287 286 279 283 280 281 281 284 287 285 281 284 285 288 284 288 286 285 289 286 285 286 288 289 289 291 295 300 294 295 296 296 296 296 298 297 296 297 295 294 294
290 289 277 283 282 283 281 281 282 284 285 283 282 280 281 283 282 286 284 288 289 283 277 279 285 287 288 290 294 300 299 293 293 295 295 295 295 296 297 296 297 295 294 294
289 287 277 283 285 285 285 284 283 284 284 282 281 281 281 281 284 287 285 282 277 279 279 283 287 288 289 289 291 299 301 295 293 293 294 294 295 295 295 296 297 296 295 295
290 287 283 284 283 282 282 282 282 284 284 283 283 282 282 284 285 280 279 274 276 280 285 287 288 288 288 288 291 297 302 301 294 293 295 294 294 294 295 296 297 296 296 294
288 285 286 284 283 282 283 283 285 286 283 280 281 281 276 286 279 275 280 277 282 286 286 287 288 288 287 289 291 296 302 303 301 295 294 294 295 295 294 293 295 295 295 295

GFSNW_sfc_thetae_048.txt.gz
Theta_e
307 306 306 305 304 303 300 293 290 301 298 289 284 284 289 295 293 296 293 291 289 287 287 284 284 285 288 294 292 286 288 282 280 283 290 291 287 284 283 280 277 278 279 279
306 305 305 305 304 304 298 293 291 301 297 281 282 287 290 292 291 292 290 289 290 289 285 282 286 288 293 293 290 287 288 282 277 280 283 287 285 287 287 286 285 279 277 279
306 305 305 305 304 304 295 290 286 290 289 287 284 283 286 288 294 292 291 289 290 286 285 287 285 286 291 292 291 297 293 284 281 277 281 285 284 286 287 286 281 281 282 283
305 304 304 305 304 303 294 287 284 285 281 283 283 282 286 287 286 290 290 287 287 285 281 282 283 286 287 290 294 289 289 284 286 287 287 287 286 285 286 284 285 282 284 285
304 304 304 304 303 302 293 285 284 285 283 285 284 284 282 285 287 287 286 284 287 285 281 284 283 284 284 284 288 288 288 284 287 284 287 286 284 287 286 286 287 287 288 286
304 303 303 303 303 299 291 290 289 289 283 282 281 281 284 285 286 288 290 288 286 284 287 289 289 289 290 289 286 286 288 288 285 280 284 284 280 285 287 288 291 290 285 288
304 303 303 303 303 299 292 291 290 283 279 283 283 285 286 285 286 285 289 289 284 289 293 291 290 288 289 289 289 289 283 286 286 282 282 274 284 293 292 289 290 292 291 291
303 303 303 303 302 301 293 291 289 287 280 284 285 287 286 286 286 284 287 289 290 291 288 283 282 284 286 290 291 289 290 288 283 279 278 281 285 289 289 287 286 292 290 291
303 302 302 302 302 302 292 291 292 289 285 280 288 285 285 281 280 282 285 289 291 289 289 287 280 278 283 280 289 292 290 290 285 282 276 274 283 292 294 292 283 292 291 290
303 302 302 302 301 301 294 292 292 289 285 285 286 283 282 283 281 279 282 286 285 289 283 278 277 281 286 281 281 284 285 285 282 281 279 280 290 293 294 282 283 291 292 291
303 302 302 301 301 301 295 292 294 292 286 286 288 288 284 283 282 278 282 282 285 283 280 285 284 283 282 280 284 279 278 274 280 281 278 273 294 292 285 291 292 293 293 294
302 302 301 301 301 301 300 289 294 296 290 285 289 291 292 291 289 284 284 283 284 287 280 281 281 280 282 281 277 284 275 281 278 283 283 292 295 294 296 296 291 293 294 295
302 301 301 301 301 301 300 294 296 293 288 284 283 285 290 292 292 292 283 283 287 287 293 288 285 284 289 281 279 278 286 289 286 287 290 290 294 296 295 294 294 296 295 295
302 301 301 301 301 301 300 294 295 293 289 282 283 292 290 296 295 293 292 292 290 290 295 291 289 285 291 287 286 286 289 291 289 289 291 291 293 294 294 294 296 295 297 297
301 301 301 301 301 302 299 296 295 296 286 283 283 289 291 293 293 294 291 291 287 290 292 290 288 292 291 291 290 288 292 290 288 287 294 293 291 294 296 294 294 296 296 296
301 301 301 301 301 301 293 290 293 293 294 288 284 288 289 292 293 294 291 290 288 293 293 292 294 296 292 286 286 292 295 297 297 293 297 295 294 296 296 296 296 297 297 297
301 301 301 301 301 298 289 288 294 298 296 289 286 284 288 292 292 291 292 291 294 294 292 292 293 294 294 287 285 292 295 297 298 297 293 292 293 292 296 297 297 297 297 298
300 300 301 301 301 300 294 298 301 300 294 293 285 283 285 291 287 286 292 294 296 296 295 295 292 294 292 287 288 290 294 297 294 293 294 294 295 296 296 297 296 296 294 295
300 300 302 299 294 293 297 305 304 298 295 285 284 283 278 290 287 288 288 296 291 296 292 292 293 290 284 288 288 289 292 295 292 294 293 295 293 294 296 295 295 294 294 294
300 297 294 293 297 303 305 297 294 293 293 292 286 290 283 286 285 286 286 293 291 288 292 296 288 288 290 290 290 291 293 294 294 291 291 293 292 295 295 295 296 296 294 294
289 286 289 291 298 294 288 285 290 289 286 288 288 288 283 288 282 284 291 289 289 286 290 290 286 282 286 290 290 292 293 295 295 294 295 295 295 295 295 295 296 294 294 292
289 290 292 291 290 287 285 283 290 287 284 289 285 284 286 285 287 290 290 287 290 285 290 288 281 285 289 289 290 291 292 298 295 294 294 296 295 297 296 296 295 294 294 294
294 290 289 287 286 279 282 280 281 280 283 285 283 280 280 283 290 284 287 285 284 291 283 283 284 287 288 289 289 290 294 298 295 295 296 295 296 297 296 296 295 295 294 294
289 288 279 282 282 283 281 280 280 283 284 283 280 279 279 281 281 286 283 288 285 277 275 277 284 286 287 288 289 290 292 299 294 294 295 295 295 295 296 296 296 296 294 295
288 288 278 282 284 283 283 283 282 283 283 281 280 280 281 283 283 284 283 277 274 277 274 283 285 287 287 287 288 290 292 299 296 293 294 295 295 295 295 296 296 296 295 295
290 287 283 284 282 281 282 282 282 284 283 281 282 282 281 281 279 274 277 270 273 276 283 285 287 287 287 286 288 291 295 300 300 294 294 294 295 294 295 295 295 295 295 294
288 285 286 283 282 282 282 283 285 285 282 280 281 280 278 283 274 275 279 272 277 285 284 286 287 287 287 288 289 292 296 301 300 300 296 294 295 295 295 293 293 294 295 295

GFSNW_sfc_thetae_051.txt.gz
Theta_e
307 306 306 306 305 303 303 301 297 307 305 297 292 293 292 295 295 298 295 295 292 291 291 289 289 288 291 297 296 291 294 290 285 287 294 295 293 290 290 283 282 285 284 283
307 306 306 306 305 304 301 296 297 306 304 293 291 292 292 294 293 294 293 292 293 294 290 287 290 291 295 296 294 292 294 288 283 284 289 292 290 291 292 291 288 283 280 284
306 305 305 305 304 303 300 296 292 295 296 293 290 288 289 291 296 294 294 292 293 292 289 292 289 289 293 294 294 296 296 291 286 281 285 290 287 289 291 289 282 284 285 287
306 304 305 305 304 303 298 292 290 290 286 289 289 289 289 288 289 293 294 291 290 288 286 287 287 290 291 293 296 295 295 286 289 289 289 289 289 289 290 288 288 283 287 288
306 304 304 304 303 302 297 292 291 292 289 289 288 288 288 288 289 289 289 289 290 290 286 288 286 289 289 289 293 294 296 286 289 286 289 289 287 289 290 290 290 290 290 289
305 304 304 303 303 300 296 296 296 293 287 287 287 287 288 288 289 290 291 291 289 287 289 292 294 294 294 293 291 291 291 289 285 281 288 288 284 289 290 291 292 292 287 293
305 303 303 303 303 299 296 295 295 290 284 286 286 287 288 287 289 287 290 291 289 292 296 295 295 294 293 292 291 293 288 288 287 282 286 277 289 294 294 292 293 295 295 296
305 303 303 303 302 301 297 295 295 292 285 286 286 288 288 289 289 288 289 291 294 296 292 289 288 290 290 289 290 289 291 287 283 282 281 286 288 292 291 289 289 295 294 293
305 303 302 302 302 301 298 296 297 294 287 285 289 286 288 286 286 286 288 293 296 295 292 289 283 283 286 285 287 292 291 290 286 284 279 277 288 293 296 294 283 295 294 294
305 303 302 302 302 301 299 297 297 294 286 289 291 287 286 290 288 285 287 289 290 294 289 286 284 285 287 283 283 285 285 286 282 283 281 286 293 295 296 283 287 295 295 295
304 303 302 301 301 301 299 296 298 295 289 289 290 291 289 289 289 285 288 288 290 291 287 285 285 284 287 286 288 285 285 284 283 284 282 279 295 292 286 292 296 296 296 296
304 303 302 301 301 301 300 295 298 298 291 289 293 294 295 293 292 290 290 289 288 292 288 289 288 286 288 286 282 291 285 288 285 286 287 296 298 294 298 299 296 297 296 296
304 302 301 301 301 301 301 297 298 294 290 290 289 291 295 295 294 296 288 291 293 293 296 291 289 285 290 284 286 287 291 293 289 288 292 291 296 298 298 298 296 297 298 296
304 302 301 301 301 301 301 297 298 294 290 283 290 296 295 299 297 295 295 295 295 297 298 292 289 287 293 288 290 288 291 291 289 290 292 295 296 298 297 298 298 296 297 297
303 302 301 301 301 301 301 299 299 298 291 286 289 295 296 298 298 296 295 293 291 290 290 290 289 292 291 292 291 287 291 288 286 287 295 295 295 298 298 297 296 296 296 296
303 302 301 301 301 301 297 293 297 298 296 288 285 295 295 297 297 296 295 294 291 291 290 293 295 297 292 287 287 292 290 291 294 295 297 296 298 299 298 298 296 297 297 297
303 301 300 300 301 299 293 292 297 298 298 289 287 289 295 296 297 299 298 295 293 293 292 291 292 294 294 288 285 288 290 290 296 298 297 294 296 295 297 297 297 298 298 298
300 300 300 301 301 301 295 300 301 299 294 293 286 287 290 296 294 294 300 295 295 296 294 296 293 294 291 286 288 289 290 291 296 296 297 297 297 297 297 297 297 296 295 295
298 299 301 300 297 293 298 304 303 301 295 288 287 284 284 295 294 295 297 298 292 299 293 293 293 290 283 287 287 288 289 291 293 296 297 297 295 295 296 295 296 293 293 293
298 298 296 293 296 302 305 299 294 293 295 293 286 292 287 292 291 291 292 295 292 290 292 295 288 287 290 290 290 289 291 293 296 295 293 294 294 294 295 294 295 294 293 293
292 291 291 294 298 297 293 289 289 290 287 289 290 290 288 295 288 287 292 290 293 287 289 289 287 285 288 290 289 291 292 294 298 298 298 297 297 296 295 295 295 294 294 293
292 293 295 295 293 290 286 285 290 288 286 291 289 291 291 293 294 290 292 288 290 284 292 288 283 287 289 289 288 290 292 295 300 299 297 297 298 298 296 295 295 295 295 295
296 292 290 290 289 284 283 282 286 285 290 292 291 286 288 291 292 289 288 286 285 292 285 283 285 288 288 288 288 289 293 296 300 299 299 298 298 298 297 296 296 296 295 295
290 289 283 285 284 286 287 286 286 288 290 289 288 287 286 289 289 288 284 287 288 281 279 280 286 286 287 288 289 289 290 294 298 302 298 297 297 297 297 297 296 295 294 294
289 290 283 284 289 287 288 288 288 289 289 288 286 288 290 289 286 285 285 282 279 280 280 284 286 287 288 287 288 288 291 295 300 301 299 297 298 297 296 297 297 295 295 294
290 289 285 287 286 285 287 287 288 290 289 288 289 287 285 282 283 281 277 278 276 281 285 287 288 288 288 287 288 289 293 294 297 299 301 299 298 297 297 298 297 296 295 294
289 287 290 288 288 287 287 289 291 291 288 286 288 282 279 285 281 276 281 279 281 285 287 289 289 288 289 290 289 290 292 292 294 296 298 300 299 299 298 296 297 296 295 295

GFSNW_sfc_thetae_057.txt.gz
Theta_e
310 308 307 306 306 304 306 311 302 318 318 303 306 299 300 296 299 302 300 300 299 297 297 296 295 294 297 301 300 294 297 296 289 292 298 300 297 295 294 288 286 290 290 290
309 308 307 306 306 304 304 304 305 316 310 299 298 300 298 299 298 299 298 298 300 301 297 293 295 296 301 300 299 295 298 293 287 288 294 297 295 296 296 296 296 290 287 290
309 308 306 306 306 305 305 304 299 305 306 304 298 297 296 295 299 298 299 299 300 298 296 298 293 295 297 300 299 300 299 293 289 285 288 290 288 292 296 295 291 291 291 293
309 308 306 306 305 304 307 306 301 301 295 297 298 298 297 295 294 299 300 297 297 295 292 293 292 294 295 298 301 298 297 289 291 292 293 293 292 292 293 292 294 289 292 293
309 307 306 305 305 303 307 298 297 300 298 300 297 295 296 294 295 295 293 293 295 296 293 293 291 293 294 293 297 296 298 289 292 289 293 293 291 292 293 293 294 293 293 293
309 307 305 305 305 304 303 303 305 300 299 299 295 296 295 293 295 296 296 295 294 293 295 297 298 299 298 297 294 294 293 292 289 286 290 291 288 292 293 294 296 295 291 297
308 307 306 304 304 303 303 302 300 298 294 297 295 294 294 293 294 293 296 297 295 298 302 302 301 300 299 298 297 297 292 290 290 286 289 281 292 299 298 296 297 299 299 300
308 308 306 304 304 303 302 303 299 298 292 295 295 294 293 295 298 296 296 297 300 303 300 295 293 295 292 293 296 296 298 292 288 284 285 289 293 297 296 294 294 299 298 300
307 308 306 304 303 303 303 302 302 300 294 295 295 293 295 294 295 297 297 301 304 302 297 295 288 289 290 289 290 297 297 296 289 289 283 281 292 298 301 300 290 300 299 298
306 308 306 304 303 303 302 301 304 298 294 299 297 294 294 298 298 296 298 298 299 302 296 293 289 290 294 288 288 289 289 289 286 287 285 290 298 299 301 287 291 300 300 300
305 308 307 305 303 303 301 300 304 298 295 298 299 298 297 299 300 296 300 297 298 296 292 290 292 290 293 292 294 291 289 288 288 289 285 283 300 299 291 297 300 300 300 299
305 307 307 305 303 302 301 298 303 303 296 297 303 302 304 303 303 300 300 298 297 296 293 293 292 290 294 292 287 297 289 293 288 290 291 301 302 300 302 301 298 298 299 299
304 307 307 305 303 302 301 299 301 299 296 298 300 301 306 307 306 308 297 298 302 299 302 296 294 290 296 290 292 292 296 297 291 288 297 297 298 301 301 301 300 300 300 300
303 305 307 304 302 302 302 299 301 299 297 292 299 306 303 308 308 306 306 303 303 302 299 296 293 291 298 293 294 292 289 293 290 291 296 296 297 299 300 299 301 300 300 299
303 304 306 303 301 302 302 301 301 302 295 292 295 302 306 307 307 305 305 301 297 295 294 292 292 297 298 296 294 287 292 289 285 286 293 294 295 300 300 298 299 297 296 295
303 305 306 302 301 301 298 294 302 303 301 293 289 304 303 304 305 304 302 301 296 294 290 292 297 300 293 289 289 291 295 295 295 292 297 298 299 301 300 300 297 297 296 296
303 304 304 300 300 300 294 294 298 303 303 293 290 295 302 304 303 303 302 301 298 296 294 293 296 294 295 290 288 293 295 292 294 298 299 296 300 297 299 299 297 297 296 297
303 303 300 299 299 298 295 299 302 303 298 296 288 293 298 304 298 297 304 299 296 296 296 297 293 296 297 291 293 294 291 291 294 297 299 300 301 299 299 299 296 294 293 293
303 300 299 298 296 294 298 304 303 303 296 290 290 292 293 302 298 299 297 298 295 299 291 293 293 294 288 290 290 289 290 289 291 297 299 301 299 297 297 297 295 293 291 292
300 298 295 291 298 305 304 299 294 293 294 294 290 298 294 297 296 295 296 297 296 290 289 293 293 290 293 293 291 290 292 294 296 295 296 300 298 296 296 297 295 294 292 291
296 292 292 298 301 301 298 292 290 290 288 292 294 297 293 300 292 293 298 296 298 290 290 291 291 289 291 293 290 292 293 295 296 298 302 302 301 297 297 298 296 294 293 291
296 296 299 299 295 293 289 288 293 291 289 295 294 296 298 297 301 296 298 293 296 288 298 293 287 290 293 293 291 291 292 294 296 300 302 303 302 300 298 298 296 295 294 293
298 295 292 292 290 285 285 284 288 290 295 297 295 293 297 297 299 297 295 290 289 297 293 288 289 292 293 292 291 291 292 294 297 299 303 304 302 302 300 298 299 296 294 294
291 289 284 285 286 288 291 293 295 296 296 296 295 295 295 298 294 296 287 293 293 287 286 285 291 293 293 293 292 291 290 293 295 297 300 301 302 302 300 299 300 298 294 294
291 291 285 287 292 295 297 296 295 296 298 296 295 297 298 295 291 292 291 287 282 286 284 288 292 292 292 292 292 291 291 291 292 296 298 300 301 301 302 301 300 300 297 294
291 292 289 292 291 293 294 294 294 297 298 299 297 294 291 290 291 286 286 285 283 286 289 291 291 293 292 292 292 292 293 292 291 294 297 298 300 301 301 302 300 299 299 296
290 290 294 293 294 294 295 297 297 300 295 292 296 288 285 294 289 282 290 285 287 290 291 291 292 292 292 293 293 293 293 293 292 293 295 297 299 302 301 300 301 300 299 299

GFSNW_sfc_thetae_063.txt.gz
Theta_e
309 310 309 308 307 304 301 299 296 315 314 296 296 294 299 299 298 301 298 298 296 293 294 292 291 291 295 301 299 292 294 290 285 289 295 296 294 291 289 284 283 285 282 283
308 309 309 308 307 305 298 294 300 314 310 291 292 297 297 298 297 297 297 295 297 296 292 288 293 294 299 300 297 293 296 288 279 282 288 294 289 291 293 290 289 284 281 282
308 309 309 308 306 305 300 296 297 301 302 301 295 294 295 294 300 298 299 297 296 293 291 292 289 291 297 300 298 302 297 287 284 279 283 289 285 290 291 288 283 285 286 288
308 309 309 307 306 305 302 300 297 299 292 293 295 297 296 294 294 297 296 293 292 290 286 289 288 292 293 295 301 296 292 284 287 289 291 290 289 289 290 287 289 285 287 288
306 308 308 307 305 304 303 297 294 294 292 296 295 296 295 293 293 293 291 291 294 292 287 289 287 289 289 289 292 290 292 282 289 286 290 290 288 291 291 291 290 289 291 289
305 306 308 306 305 304 296 299 300 294 293 294 293 294 294 293 295 295 295 293 291 290 292 294 293 292 292 292 289 287 287 285 283 279 288 287 282 290 291 292 294 292 286 290
304 305 308 306 305 303 298 297 297 292 289 292 292 295 296 292 292 290 294 296 292 296 299 298 296 294 294 295 293 292 287 286 285 279 284 276 290 296 296 293 294 295 295 296
304 304 306 307 304 303 299 298 296 293 287 292 292 294 293 293 294 295 296 298 299 299 295 290 288 290 291 294 297 293 293 288 281 277 276 286 290 292 293 290 290 294 293 295
304 304 304 306 304 303 301 299 302 296 289 290 295 291 294 289 289 294 298 301 300 297 293 290 282 281 289 285 289 297 296 292 284 280 278 275 289 295 298 296 283 294 295 293
305 304 304 305 306 303 300 298 301 296 288 293 294 291 290 293 292 291 296 296 295 298 289 283 283 283 293 284 286 287 285 284 281 281 280 285 294 296 296 281 283 294 294 294
305 305 304 304 306 303 301 298 300 297 291 292 295 297 293 293 294 290 294 294 295 292 287 288 286 286 288 286 290 288 285 285 280 282 281 277 297 294 286 291 294 294 294 295
305 305 304 304 306 303 302 294 302 302 294 292 298 298 298 297 297 295 296 295 295 296 289 291 291 287 286 286 279 294 285 289 286 286 282 294 296 292 293 295 293 294 295 296
305 304 304 304 306 303 301 297 299 296 293 293 294 295 302 302 301 303 293 297 299 297 297 292 289 286 290 284 285 289 293 292 285 285 292 292 294 294 295 296 296 297 298 295
305 304 304 304 305 303 302 297 299 296 294 288 293 302 301 306 305 305 303 302 300 298 296 291 289 287 295 290 292 289 289 290 287 287 291 291 293 294 295 297 299 299 298 295
306 304 303 303 304 302 301 300 300 299 293 288 289 296 299 301 304 303 303 301 299 295 292 291 289 293 292 293 291 289 292 290 286 284 290 290 291 294 298 297 297 298 295 294
305 304 303 303 304 301 297 292 298 299 298 291 286 296 297 302 304 302 301 300 296 294 290 290 293 299 294 286 282 291 295 294 295 291 294 294 296 297 299 298 299 297 296 295
304 303 303 304 302 299 294 293 297 300 299 292 287 289 299 302 302 300 300 301 297 296 292 290 292 295 293 290 287 292 291 291 292 294 294 293 296 294 298 299 297 298 295 295
303 303 303 303 301 298 294 299 301 301 296 295 287 288 293 304 296 296 301 296 297 295 293 295 294 295 293 289 292 292 291 292 293 293 295 295 297 299 300 299 296 294 294 293
303 304 301 298 295 292 296 302 302 301 296 288 289 287 287 302 297 299 298 298 291 297 292 291 293 291 287 290 289 290 290 290 291 294 295 296 296 298 299 297 295 293 292 292
302 298 294 290 295 302 303 296 292 291 293 292 288 292 289 297 295 294 294 296 292 288 291 294 289 289 293 292 292 292 293 293 293 291 292 295 296 296 297 297 295 294 293 293
297 293 292 299 303 298 294 289 288 288 286 289 290 291 288 298 290 290 295 290 293 287 289 288 288 287 290 293 293 294 294 294 294 295 296 297 298 296 297 298 296 295 294 293
297 297 300 299 294 292 288 288 290 288 287 292 291 293 294 296 297 291 294 290 293 286 292 289 286 288 291 293 292 293 294 293 293 294 295 297 297 298 298 298 298 295 295 295
299 295 291 291 290 284 283 282 287 288 294 296 294 293 294 294 294 292 292 288 288 296 290 287 287 291 291 292 292 292 294 294 294 293 295 296 297 298 298 298 299 295 295 295
292 289 284 286 285 286 287 288 291 296 297 296 295 293 292 296 291 292 288 292 292 285 285 284 288 290 291 292 292 291 291 293 293 293 294 295 295 295 297 298 299 299 295 295
290 290 285 286 291 293 294 296 296 298 298 294 293 295 295 291 290 291 289 287 284 286 284 287 290 292 291 291 292 291 291 292 292 294 294 295 294 293 295 297 298 298 296 295
291 290 288 293 291 291 293 294 294 298 294 295 295 293 291 291 289 287 286 284 282 286 289 290 291 292 292 293 293 292 292 292 293 293 294 295 293 293 293 295 296 296 299 297
290 289 294 293 293 293 295 297 295 298 294 289 292 290 289 293 287 285 288 284 288 290 291 292 291 291 293 294 292 292 292 294 293 293 294 294 294 293 292 291 293 295 298 298

GFSNW_sfc_thetae_069.txt.gz
Theta_e
308 308 308 308 308 306 299 292 290 301 305 296 292 290 294 297 298 299 296 296 294 292 292 289 289 289 292 298 296 290 290 285 281 285 291 294 290 288 288 279 281 284 283 280
308 307 308 308 308 306 296 292 290 301 303 287 287 293 295 298 296 296 295 293 294 293 289 285 291 291 296 297 295 291 291 282 276 279 283 288 287 289 289 286 284 280 278 279
308 307 308 309 308 307 295 290 287 292 295 293 289 290 292 293 298 295 294 293 294 291 289 289 287 289 294 295 296 301 294 283 281 277 281 283 282 286 288 285 280 280 283 284
309 307 307 308 307 306 297 295 289 288 284 290 290 295 294 293 291 295 294 291 292 290 285 287 285 289 290 293 300 294 288 282 284 285 287 287 287 286 287 284 285 281 285 285
309 307 306 308 307 305 296 290 290 291 287 288 290 294 293 293 293 292 290 288 291 290 285 287 285 287 286 286 288 287 287 280 285 284 288 287 285 287 288 290 289 288 288 287
309 306 304 307 306 303 291 293 297 293 292 291 290 291 294 294 293 294 294 292 290 289 290 292 292 291 289 289 287 284 283 282 279 278 285 285 280 288 290 289 292 290 285 289
310 306 304 305 305 302 296 295 295 291 287 289 290 292 293 292 293 290 294 294 292 294 298 295 291 288 290 289 288 288 283 282 284 277 281 274 285 294 294 289 290 291 290 291
310 307 304 304 306 304 298 297 296 293 287 290 289 291 292 293 294 292 292 295 298 296 294 289 285 285 287 291 294 289 287 283 280 277 274 282 288 292 289 287 285 290 288 290
311 308 305 304 305 305 300 298 299 295 289 287 291 289 291 290 290 290 292 297 299 296 290 287 280 278 287 282 287 293 290 288 285 279 277 275 286 292 294 292 281 289 290 289
311 309 306 305 305 305 300 297 299 295 289 291 292 290 290 294 291 288 291 292 294 294 286 281 281 283 291 283 282 282 280 281 281 280 280 282 291 293 293 280 281 290 291 291
311 310 307 306 305 305 300 298 300 296 290 291 294 295 292 293 292 287 291 291 293 290 285 284 283 282 284 281 286 285 283 283 276 280 279 277 292 291 284 288 291 291 292 293
310 310 308 307 306 305 303 295 300 301 292 291 295 297 298 298 296 294 291 290 292 293 286 284 283 283 281 281 274 290 281 285 282 282 280 290 292 290 292 293 292 293 294 295
310 310 308 307 306 305 304 296 298 296 291 291 292 293 298 300 299 299 290 294 297 294 293 286 283 281 283 275 285 289 291 291 286 282 287 288 291 293 294 295 294 295 297 297
309 309 307 307 306 305 304 297 298 295 292 286 289 299 297 302 299 298 298 295 297 293 290 286 283 281 287 288 289 288 285 286 284 283 287 290 293 293 294 295 296 297 298 295
309 308 307 306 304 304 303 299 299 299 292 286 288 293 297 299 299 297 297 295 294 289 286 284 283 290 290 286 286 282 286 287 285 284 288 289 290 293 295 294 295 297 296 295
309 308 307 305 304 303 297 292 298 300 298 289 285 293 295 297 297 297 295 295 293 291 288 285 285 293 290 287 279 290 291 291 291 286 291 291 293 295 297 295 297 297 296 295
308 307 305 304 304 299 294 292 297 300 298 289 286 287 294 297 298 298 297 297 294 292 289 284 285 291 293 289 285 289 290 291 289 291 293 291 293 292 296 297 297 298 297 296
307 305 304 304 303 299 295 298 301 301 295 293 285 286 290 299 293 293 298 295 296 295 289 291 289 294 292 286 290 290 289 289 291 293 294 293 295 295 295 296 296 294 295 294
304 304 302 298 295 292 294 303 303 301 294 287 287 285 284 297 296 296 297 297 290 294 289 290 291 289 284 289 287 286 289 290 290 292 293 293 292 293 294 294 294 293 293 293
303 298 294 290 294 301 302 297 292 291 291 290 286 291 287 292 294 293 292 294 290 287 289 293 289 288 290 290 288 289 293 292 292 289 289 290 291 292 292 292 293 294 293 293
296 293 291 298 303 297 293 288 287 287 285 288 289 289 287 295 287 288 291 287 286 283 287 288 285 286 289 290 289 292 292 293 293 293 293 293 293 292 291 291 293 293 293 294
296 297 299 298 294 290 287 286 288 286 284 289 288 289 290 290 292 287 288 284 287 280 291 287 285 288 287 289 289 291 289 291 289 291 291 293 294 293 291 292 292 293 293 295
298 295 291 290 289 282 282 280 285 286 290 292 291 290 291 290 290 288 287 285 281 292 287 285 286 287 288 288 289 291 291 289 289 290 291 292 293 293 292 291 292 293 293 294
291 289 283 284 283 283 284 286 289 294 294 295 293 290 289 289 287 287 284 288 290 283 284 282 282 285 287 288 290 288 287 288 288 289 290 291 291 291 291 292 292 292 291 293
290 289 282 283 287 289 290 294 292 294 296 294 292 291 290 288 287 286 284 283 282 283 278 278 285 286 287 287 289 288 287 287 288 288 289 289 289 289 289 291 292 291 292 292
291 289 286 287 288 288 289 292 292 295 294 293 291 289 288 288 285 283 283 279 278 276 279 282 285 285 287 287 288 289 289 289 288 288 289 289 289 288 288 290 291 291 291 291
289 287 290 289 290 291 292 294 294 296 293 287 288 286 286 289 282 281 280 276 278 281 284 285 285 286 286 288 289 290 290 289 288 288 288 288 288 289 288 287 290 290 291 291

GFSNW_sfc_thetae_072.txt.gz
Theta_e
310 309 307 307 307 306 299 293 290 300 304 297 288 286 292 297 298 299 297 295 294 292 291 289 289 289 291 297 296 289 289 285 281 284 289 291 288 286 284 276 273 279 275 279
310 309 307 307 308 306 297 289 289 298 299 290 287 290 294 297 296 296 294 292 293 292 290 286 290 291 296 297 294 291 291 282 277 279 282 286 285 288 287 284 282 279 274 279
311 309 307 307 308 307 295 291 287 290 291 290 288 289 291 292 299 297 295 292 293 291 289 290 287 288 293 294 295 300 294 282 281 277 279 282 281 285 286 283 274 280 280 283
311 309 307 306 307 306 296 293 287 287 283 286 288 289 293 291 292 296 296 291 290 288 284 287 286 288 289 291 300 293 288 282 283 284 285 285 285 285 285 282 284 281 284 284
312 310 306 306 307 305 293 288 287 290 288 291 288 293 291 292 294 292 291 290 291 290 285 287 285 286 285 285 289 288 286 280 283 283 287 286 284 286 286 287 288 288 288 286
312 310 306 306 306 302 292 294 294 292 291 291 290 291 293 293 293 294 295 293 290 289 291 293 291 290 289 288 286 283 283 282 279 278 283 283 279 285 289 288 290 290 284 287
311 311 307 304 306 302 297 295 294 291 287 290 289 291 291 290 292 291 293 295 291 295 298 295 292 289 290 289 288 287 281 281 284 277 280 274 283 293 293 288 289 290 289 289
311 311 307 305 306 304 297 297 295 293 287 290 289 290 291 293 294 292 293 295 298 298 293 288 286 285 287 290 292 286 288 287 283 278 274 281 287 290 289 287 285 289 287 289
311 311 309 305 305 306 299 298 298 295 289 288 291 289 290 288 289 291 292 297 298 296 290 287 281 280 286 281 286 290 288 289 285 281 276 275 285 291 294 292 281 289 289 288
311 312 310 306 305 306 301 298 300 295 289 292 292 289 290 293 291 288 290 291 293 295 286 282 280 281 289 281 283 282 279 284 283 282 278 281 290 292 293 279 281 290 291 291
311 311 311 307 306 306 301 298 300 296 291 292 294 294 291 292 292 287 291 289 292 291 285 285 285 282 283 282 285 282 281 282 281 282 278 275 292 290 282 286 291 292 292 293
310 311 311 309 307 306 304 295 300 300 292 291 293 296 298 296 297 293 293 289 290 294 286 284 284 281 281 280 274 291 283 284 282 282 279 288 291 289 292 292 292 293 293 294
310 310 311 309 308 306 304 297 299 296 292 291 292 290 298 299 298 299 290 292 296 295 294 287 283 281 282 274 280 288 291 289 287 284 285 286 290 292 294 294 294 295 295 296
309 310 310 309 308 306 305 297 298 296 292 286 287 297 295 302 301 299 297 296 296 294 291 287 287 282 286 285 289 288 289 288 286 284 286 290 293 293 293 295 295 295 296 295
309 309 310 308 307 305 303 299 299 299 293 286 287 292 296 299 299 297 297 295 292 291 288 284 282 284 285 285 287 286 289 288 286 284 288 288 289 293 294 294 294 295 294 294
309 310 308 307 305 303 299 293 298 300 298 289 283 292 294 298 298 296 294 294 293 291 288 287 284 287 290 286 283 289 291 292 292 287 290 291 292 294 296 294 295 295 295 294
309 309 308 305 304 300 294 292 297 300 299 289 284 286 294 297 297 296 295 295 294 293 290 285 284 286 293 289 284 289 291 291 290 290 292 290 293 291 295 295 295 295 295 295
308 307 305 304 304 300 296 299 301 300 294 292 285 285 289 299 293 293 297 294 295 295 292 290 288 293 293 286 289 290 290 289 290 292 293 293 294 294 294 295 293 292 292 292
305 305 304 299 296 293 295 302 303 300 294 287 287 284 283 296 295 297 296 297 290 294 289 290 290 287 285 289 288 285 288 290 290 292 292 292 291 292 293 292 291 291 291 291
303 299 295 290 294 301 303 296 291 290 291 290 286 290 287 291 291 293 293 294 290 286 288 292 288 288 291 291 287 287 290 291 291 287 288 289 289 290 291 290 291 291 291 291
296 293 292 298 302 297 292 288 287 286 284 287 288 288 287 293 287 289 293 289 289 283 287 288 285 285 289 290 288 289 288 289 289 289 290 290 290 291 290 290 291 291 291 291
297 297 299 298 293 290 286 285 287 285 283 289 288 289 290 290 293 286 287 284 286 281 291 287 284 286 288 287 287 288 288 289 288 289 289 290 291 291 290 290 290 291 292 292
299 295 291 289 288 282 282 279 284 285 289 290 291 289 291 290 290 286 286 284 281 292 286 284 286 286 287 287 288 288 288 288 288 289 290 290 289 290 289 289 291 291 291 292
291 288 282 284 283 283 284 284 288 293 294 294 294 292 289 290 285 286 284 287 290 283 283 281 282 284 286 287 289 287 286 287 287 288 289 289 288 288 289 290 291 290 290 291
289 289 282 284 286 288 289 291 292 294 295 293 291 291 289 287 287 285 283 283 282 283 276 276 283 285 286 286 288 287 287 287 287 287 288 288 288 287 288 289 291 291 291 290
291 289 286 288 287 288 288 291 291 295 294 293 292 288 287 286 284 283 283 280 277 276 276 280 284 285 285 286 288 288 289 288 287 287 287 288 287 286 287 289 291 291 290 290
289 287 290 288 289 290 292 294 293 296 293 288 287 285 285 291 283 281 280 277 279 281 283 284 284 285 285 287 288 289 288 287 286 286 287 287 287 287 287 286 288 289 290 290

GFSNW_sfc_thetae_075.txt.gz
Theta_e
312 311 309 307 306 306 302 300 297 307 307 301 295 292 295 297 299 302 299 298 294 293 293 291 292 291 293 300 299 294 295 294 287 289 293 295 294 291 292 285 282 284 283 283
312 311 309 307 307 306 300 297 296 305 305 294 292 295 296 298 297 297 296 295 294 294 292 289 291 292 297 299 298 296 297 291 284 284 289 293 290 293 294 292 289 283 280 283
312 311 309 307 307 306 301 299 293 297 297 296 292 290 292 293 299 298 298 295 295 292 290 293 291 291 295 296 296 300 299 291 287 282 285 289 287 289 292 290 285 285 285 287
312 312 309 307 307 306 303 298 292 292 289 293 292 291 293 291 292 297 297 295 294 291 287 288 288 292 292 294 300 297 296 288 289 290 290 290 289 288 289 288 289 284 287 288
312 312 309 306 307 305 300 296 295 296 293 294 292 293 292 292 293 293 292 291 293 293 288 289 288 291 291 290 295 296 294 290 289 286 289 289 287 289 290 290 290 290 290 289
312 311 309 305 307 304 298 297 299 296 292 292 290 291 291 290 291 294 296 295 292 291 293 296 297 297 295 294 293 292 291 290 286 282 287 288 285 289 290 292 293 292 287 293
312 312 310 304 306 303 299 297 297 293 289 290 289 290 291 290 292 291 294 295 292 296 300 300 298 295 295 294 293 294 290 288 288 284 287 279 289 295 294 291 292 294 294 294
311 312 311 306 306 304 301 299 298 293 288 291 290 291 290 292 292 291 292 295 299 301 297 292 290 290 292 293 294 293 293 290 286 284 284 287 289 291 291 288 288 294 291 292
311 312 311 307 305 306 302 301 300 297 290 289 292 290 290 288 288 290 293 299 300 298 293 291 285 284 288 287 290 293 291 292 288 285 281 279 288 293 296 293 284 293 292 291
311 312 312 308 306 306 303 301 301 297 291 293 293 289 288 292 291 288 291 293 294 299 290 288 286 286 291 286 286 288 288 288 285 285 283 287 293 294 295 282 285 293 293 292
310 311 312 310 307 306 303 300 301 297 292 293 295 295 292 292 291 287 292 291 292 292 288 288 289 287 288 288 290 289 287 285 285 286 282 280 295 293 287 291 294 294 293 293
310 310 311 311 308 306 305 298 301 301 294 293 298 298 299 297 296 293 293 291 291 292 289 289 289 287 288 288 285 294 286 290 287 287 289 294 297 295 296 296 294 293 293 294
309 310 311 312 309 307 305 299 299 297 293 292 293 293 299 300 298 301 290 294 296 295 296 292 290 287 291 287 288 290 291 292 289 289 292 294 295 297 297 296 295 295 296 295
309 309 310 310 310 308 305 298 299 297 293 287 290 299 297 302 301 298 298 297 298 296 294 293 292 289 292 290 291 290 293 293 289 289 293 294 295 295 296 296 296 296 296 295
309 309 310 311 309 307 304 300 299 300 294 288 289 295 298 300 299 298 298 296 295 293 291 292 290 292 293 294 293 290 293 290 288 288 294 291 292 295 297 295 295 295 293 293
309 310 310 309 307 304 300 293 299 300 298 290 283 294 295 298 298 298 296 296 294 294 292 292 293 293 294 289 286 292 293 293 293 291 295 294 295 296 297 295 295 295 295 294
309 309 309 306 305 301 295 293 298 302 300 289 285 286 295 297 298 297 296 297 295 295 292 291 292 294 297 292 288 293 292 293 294 295 294 292 295 293 296 296 296 296 295 294
308 308 306 305 303 301 297 300 302 301 294 292 284 285 291 298 294 294 299 295 296 294 293 294 292 297 295 288 292 291 293 294 294 294 295 294 295 295 295 296 295 293 292 292
307 305 304 300 297 294 296 303 303 301 295 287 286 285 285 296 295 298 297 297 290 296 292 294 295 292 288 292 291 291 292 292 292 293 293 294 292 292 293 294 293 291 292 292
304 300 295 291 295 302 303 297 292 291 291 290 286 291 287 292 291 293 293 294 291 288 292 296 290 290 294 293 292 294 293 292 292 289 289 291 290 291 291 293 293 293 292 292
297 293 292 298 303 298 293 288 287 287 284 287 288 289 287 295 288 288 293 289 291 286 289 288 288 288 290 293 292 293 293 293 293 293 292 292 291 290 291 292 293 293 292 291
297 297 300 298 293 290 286 285 288 285 284 289 288 289 290 291 294 289 291 289 290 284 292 288 285 289 290 292 292 293 293 293 292 292 291 292 292 292 292 292 292 293 293 293
299 295 291 289 289 283 281 281 284 286 289 289 289 288 290 291 292 290 290 287 287 294 287 286 288 290 292 292 293 292 293 293 292 291 292 291 292 293 292 292 293 293 292 293
290 289 284 284 283 285 286 287 289 293 294 293 293 292 291 292 288 290 287 291 291 285 284 285 290 292 292 292 293 292 292 293 292 291 291 290 290 291 292 293 293 292 290 292
289 289 282 284 289 290 292 293 293 294 296 294 293 293 293 291 289 290 289 287 284 287 287 290 292 292 292 293 293 293 292 292 291 291 290 289 289 290 291 292 293 292 291 291
291 289 286 290 288 289 291 292 292 296 296 296 294 291 289 289 289 287 286 284 284 288 291 293 293 292 293 293 293 293 291 291 290 291 290 289 288 288 289 291 291 291 290 290
289 287 292 291 290 290 292 294 294 298 294 290 290 285 287 292 288 286 289 287 290 290 292 293 293 293 294 294 293 291 290 290 290 290 290 289 290 289 288 286 288 290 290 290

GFSNW_sfc_thetae_078.txt.gz
Theta_e
312 312 311 310 307 306 307 309 304 313 315 307 307 301 298 298 301 304 301 301 299 296 297 295 294 294 296 301 300 296 300 296 291 292 298 298 296 294 295 289 286 290 288 287
312 312 311 309 307 306 307 305 306 314 313 301 303 301 299 300 300 300 299 298 300 300 295 292 297 297 299 300 299 297 300 294 288 289 293 297 293 295 295 295 294 289 285 288
312 312 311 309 307 306 307 305 301 306 306 304 298 297 297 297 301 300 301 299 300 297 295 297 294 294 297 299 298 300 299 294 291 287 290 294 290 292 294 294 289 290 290 292
312 312 312 309 306 306 307 304 299 299 298 300 297 297 296 295 293 299 300 296 298 295 292 294 293 295 296 297 298 299 298 291 293 293 293 293 292 292 292 291 292 288 291 292
312 312 311 308 306 305 309 301 299 303 300 297 294 295 294 293 292 293 293 295 296 294 292 294 292 293 295 294 297 298 300 291 293 291 293 292 290 292 293 294 294 293 293 293
312 312 311 307 306 306 308 307 307 301 296 293 293 293 292 292 293 294 297 297 293 292 294 297 298 299 301 299 296 295 296 293 291 287 291 292 289 293 293 294 296 294 290 296
312 312 312 307 305 305 305 308 306 299 293 294 292 293 294 293 293 292 296 297 293 297 302 302 301 301 300 299 298 299 295 293 292 288 291 283 294 298 297 295 295 297 297 297
311 312 311 308 306 304 309 308 305 301 292 296 294 293 293 294 296 294 295 297 299 302 296 293 292 294 294 296 298 297 298 294 289 286 287 291 293 294 294 292 292 297 296 295
311 312 312 310 306 305 308 308 310 299 292 293 296 293 293 291 290 292 293 300 302 300 293 293 287 288 290 290 292 298 298 296 290 289 284 282 293 296 299 297 287 297 296 295
311 312 312 312 307 306 306 305 306 300 292 296 297 292 291 295 293 289 291 294 296 298 291 289 289 289 294 288 288 289 290 290 288 288 286 290 297 298 299 286 289 297 297 296
310 311 311 312 308 307 306 303 304 300 293 295 297 297 295 294 292 287 293 293 294 292 290 290 292 291 293 291 293 292 290 288 288 290 285 283 299 298 291 296 299 297 296 295
309 310 310 311 310 307 306 300 304 303 295 295 302 302 301 299 298 293 293 292 291 292 289 294 293 291 293 291 288 297 289 295 290 292 293 300 302 300 301 300 296 296 296 295
309 309 309 311 311 308 306 302 301 298 294 295 296 299 303 306 302 301 290 294 297 295 296 293 294 290 295 290 291 293 295 298 294 293 296 298 300 301 301 299 297 298 297 295
309 309 310 310 311 308 306 300 302 299 295 289 296 303 301 305 305 303 301 299 298 298 296 294 294 292 296 293 294 294 295 297 293 294 297 298 299 300 299 298 298 298 297 296
308 309 310 310 311 308 305 302 301 302 295 290 292 300 302 304 303 301 298 296 295 294 292 294 293 296 295 297 295 293 298 294 293 290 298 296 297 299 298 296 296 298 296 295
308 309 310 310 309 305 301 295 300 302 300 291 287 300 298 299 301 298 297 296 296 294 292 295 298 298 297 293 291 295 298 296 298 296 300 298 298 299 299 298 298 298 297 297
308 309 310 308 305 304 298 295 303 303 302 293 287 290 297 298 298 297 296 298 296 297 294 293 295 297 297 295 289 297 297 299 299 300 298 296 298 296 299 299 299 299 298 297
308 309 307 305 303 302 298 302 303 304 296 294 286 287 293 298 293 293 299 296 297 297 295 296 296 300 298 293 296 296 297 299 298 298 299 298 299 299 297 299 299 297 295 295
307 307 304 302 299 296 297 304 304 302 296 288 287 285 289 296 295 298 298 299 291 297 290 296 298 294 291 294 296 295 297 297 296 297 298 297 295 295 296 297 297 295 294 293
305 302 296 291 296 303 304 299 292 291 292 291 287 293 289 293 291 294 291 294 291 290 294 301 295 294 297 298 297 299 297 296 296 294 292 293 293 294 295 296 295 295 295 294
299 295 292 299 303 299 294 289 288 288 286 289 289 290 289 297 290 288 294 290 294 288 292 291 291 291 294 297 296 298 297 297 296 295 295 295 296 295 295 294 295 294 295 294
298 298 301 299 294 291 287 286 289 286 286 291 289 290 291 293 296 290 290 291 293 285 296 291 288 292 295 296 296 296 296 296 295 295 294 294 294 296 296 295 294 294 295 297
300 294 291 292 290 284 283 283 286 287 291 291 290 288 291 290 292 291 293 289 289 297 291 288 292 295 294 297 297 295 297 296 295 294 295 293 294 296 296 295 295 294 294 295
290 289 284 286 284 287 288 290 292 295 294 292 291 289 289 293 291 294 289 293 293 288 286 287 292 295 296 296 296 296 294 295 294 294 293 292 292 294 295 296 295 294 292 293
290 290 285 286 293 294 295 295 295 296 296 294 294 295 295 292 291 294 293 288 286 290 290 293 295 297 296 296 296 296 294 294 294 294 292 292 292 292 292 294 296 295 293 293
291 290 288 292 291 291 293 294 294 297 296 297 296 292 291 291 293 290 288 287 286 292 296 295 298 297 297 297 296 295 294 294 294 294 293 293 292 291 292 293 293 294 294 293
290 288 293 293 292 293 294 296 296 299 294 291 294 288 288 295 290 289 295 291 295 297 297 298 298 298 297 297 295 294 293 294 294 294 293 292 292 292 291 290 292 293 293 294